Time,TemperatureF,DewpointF,PressureIn,WindDirection,WindDirectionDegrees,WindSpeedMPH,WindSpeedGustMPH,Humidity,HourlyPrecipIn,Conditions,Clouds,dailyrainin,SolarRadiationWatts/m^2,SoftwareType,DateUTC
2013-11-29 00:02:00,20.8,15.0,30.49,ESE,106,0.0,7.0,78,0.00,,,0.00,0,WeatherCatV1.23B16,2013-11-29 06:02:00,
2013-11-29 00:03:00,20.8,15.0,30.49,ESE,107,3.0,5.0,78,0.00,,,0.00,0,WeatherCatV1.23B16,2013-11-29 06:03:00,
2013-11-29 00:04:00,20.8,15.0,30.49,ESE,109,4.0,5.0,78,0.00,,,0.00,0,WeatherCatV1.23B16,2013-11-29 06:04:00,
2013-11-29 00:05:00,20.8,15.0,30.49,ESE,113,2.0,9.0,78,0.00,,,0.00,0,WeatherCatV1.23B16,2013-11-29 06:05:00,
2013-11-29 00:07:00,20.8,15.0,30.49,ESE,113,2.0,2.0,78,0.00,,,0.00,0,WeatherCatV1.23B16,2013-11-29 06:07:00,
2013-11-29 00:08:00,20.9,15.1,30.49,ESE,115,2.0,5.0,78,0.00,,,0.00,0,WeatherCatV1.23B16,2013-11-29 06:08:00,
2013-11-29 00:09:00,20.9,15.1,30.49,ESE,115,1.0,5.0,78,0.00,,,0.00,0,WeatherCatV1.23B16,2013-11-29 06:09:00,
2013-11-29 00:10:00,20.9,15.1,30.49,ESE,115,1.0,3.0,78,0.00,,,0.00,0,WeatherCatV1.23B16,2013-11-29 06:10:00,
2013-11-29 00:12:00,21.0,15.2,30.49,ESE,115,3.0,5.0,78,0.00,,,0.00,0,WeatherCatV1.23B16,2013-11-29 06:12:00,
2013-11-29 00:13:00,21.0,15.2,30.50,ESE,115,4.0,4.0,78,0.00,,,0.00,0,WeatherCatV1.23B16,2013-11-29 06:13:00,
2013-11-29 00:14:00,21.0,15.2,30.50,ESE,115,1.0,5.0,78,0.00,,,0.00,0,WeatherCatV1.23B16,2013-11-29 06:14:00,
2013-11-29 00:15:00,21.1,15.3,30.49,ESE,115,2.0,5.0,78,0.00,,,0.00,0,WeatherCatV1.23B16,2013-11-29 06:15:00,
2013-11-29 00:17:00,21.2,15.4,30.50,ESE,115,4.0,4.0,78,0.00,,,0.00,0,WeatherCatV1.23B16,2013-11-29 06:17:00,
2013-11-29 00:18:00,21.2,15.4,30.50,ESE,115,0.0,4.0,78,0.00,,,0.00,0,WeatherCatV1.23B16,2013-11-29 06:18:00,
2013-11-29 00:19:00,21.2,15.4,30.50,ESE,115,2.0,4.0,78,0.00,,,0.00,0,WeatherCatV1.23B16,2013-11-29 06:19:00,
2013-11-29 00:20:00,21.2,15.4,30.50,ESE,115,4.0,4.0,78,0.00,,,0.00,0,WeatherCatV1.23B16,2013-11-29 06:20:00,
2013-11-29 00:22:00,21.2,15.4,30.50,ESE,116,3.0,4.0,78,0.00,,,0.00,0,WeatherCatV1.23B16,2013-11-29 06:22:00,
2013-11-29 00:23:00,21.2,15.4,30.50,ESE,116,4.0,5.0,78,0.00,,,0.00,0,WeatherCatV1.23B16,2013-11-29 06:23:00,
2013-11-29 00:25:00,21.2,15.1,30.50,ESE,118,2.0,8.0,77,0.00,,,0.00,0,WeatherCatV1.23B16,2013-11-29 06:25:00,
2013-11-29 00:27:00,21.2,15.1,30.50,ESE,120,1.0,4.0,77,0.00,,,0.00,0,WeatherCatV1.23B16,2013-11-29 06:27:00,
2013-11-29 00:28:00,21.2,15.1,30.50,ESE,120,4.0,5.0,77,0.00,,,0.00,0,WeatherCatV1.23B16,2013-11-29 06:28:00,
2013-11-29 00:30:00,21.2,15.1,30.50,ESE,120,1.0,4.0,77,0.00,,,0.00,0,WeatherCatV1.23B16,2013-11-29 06:30:00,
2013-11-29 00:31:00,21.2,15.1,30.50,ESE,120,1.0,4.0,77,0.00,,,0.00,0,WeatherCatV1.23B16,2013-11-29 06:31:00,
2013-11-29 00:33:00,21.2,15.1,30.50,ESE,120,0.0,7.0,77,0.00,,,0.00,0,WeatherCatV1.23B16,2013-11-29 06:33:00,
2013-11-29 00:35:00,21.1,15.0,30.50,ESE,120,4.0,4.0,77,0.00,,,0.00,0,WeatherCatV1.23B16,2013-11-29 06:35:00,
2013-11-29 00:36:00,21.1,15.0,30.50,ESE,119,4.0,4.0,77,0.00,,,0.00,0,WeatherCatV1.23B16,2013-11-29 06:36:00,
2013-11-29 00:38:00,21.1,15.0,30.50,ESE,120,2.0,4.0,77,0.00,,,0.00,0,WeatherCatV1.23B16,2013-11-29 06:38:00,
2013-11-29 00:40:00,21.0,14.9,30.50,ESE,120,4.0,4.0,77,0.00,,,0.00,0,WeatherCatV1.23B16,2013-11-29 06:40:00,
2013-11-29 00:41:00,21.0,14.9,30.50,ESE,120,1.0,6.0,77,0.00,,,0.00,0,WeatherCatV1.23B16,2013-11-29 06:41:00,
2013-11-29 00:43:00,21.0,14.9,30.50,ESE,119,4.0,4.0,77,0.00,,,0.00,0,WeatherCatV1.23B16,2013-11-29 06:43:00,
2013-11-29 00:45:00,20.9,14.9,30.50,ESE,120,1.0,5.0,77,0.00,,,0.00,0,WeatherCatV1.23B16,2013-11-29 06:45:00,
2013-11-29 00:46:00,20.9,14.9,30.49,ESE,120,0.0,5.0,77,0.00,,,0.00,0,WeatherCatV1.23B16,2013-11-29 06:46:00,
2013-11-29 00:47:00,20.9,14.9,30.49,ESE,120,2.0,3.0,77,0.00,,,0.00,0,WeatherCatV1.23B16,2013-11-29 06:47:00,
2013-11-29 00:48:00,20.8,14.8,30.49,ESE,120,0.0,3.0,77,0.00,,,0.00,0,WeatherCatV1.23B16,2013-11-29 06:48:00,
2013-11-29 00:49:00,20.8,14.8,30.49,ESE,119,0.0,2.0,77,0.00,,,0.00,0,WeatherCatV1.23B16,2013-11-29 06:49:00,
2013-11-29 00:50:00,20.8,14.8,30.49,ESE,119,2.0,4.0,77,0.00,,,0.00,0,WeatherCatV1.23B16,2013-11-29 06:50:00,
2013-11-29 00:51:00,20.8,14.8,30.49,ESE,120,3.0,4.0,77,0.00,,,0.00,0,WeatherCatV1.23B16,2013-11-29 06:51:00,
2013-11-29 00:52:00,20.8,14.8,30.49,ESE,120,3.0,3.0,77,0.00,,,0.00,0,WeatherCatV1.23B16,2013-11-29 06:52:00,
2013-11-29 00:53:00,20.7,14.6,30.49,ESE,120,1.0,4.0,77,0.00,,,0.00,0,WeatherCatV1.23B16,2013-11-29 06:53:00,
2013-11-29 00:54:00,20.7,14.6,30.49,ESE,120,0.0,2.0,77,0.00,,,0.00,0,WeatherCatV1.23B16,2013-11-29 06:54:00,
2013-11-29 00:56:00,20.6,14.6,30.49,ESE,119,4.0,4.0,77,0.00,,,0.00,0,WeatherCatV1.23B16,2013-11-29 06:56:00,
2013-11-29 00:57:00,20.6,14.6,30.49,ESE,119,2.0,4.0,77,0.00,,,0.00,0,WeatherCatV1.23B16,2013-11-29 06:57:00,
2013-11-29 00:58:00,20.6,14.6,30.49,ESE,119,0.0,5.0,77,0.00,,,0.00,0,WeatherCatV1.23B16,2013-11-29 06:58:00,
2013-11-29 00:59:00,20.6,14.6,30.49,ESE,119,2.0,5.0,77,0.00,,,0.00,0,WeatherCatV1.23B16,2013-11-29 06:59:00,
2013-11-29 01:01:00,20.6,14.6,30.49,ESE,120,0.0,4.0,77,0.00,,,0.00,0,WeatherCatV1.23B16,2013-11-29 07:01:00,
2013-11-29 01:02:00,20.5,14.5,30.49,ESE,119,2.0,3.0,77,0.00,,,0.00,0,WeatherCatV1.23B16,2013-11-29 07:02:00,
2013-11-29 01:03:00,20.5,14.5,30.48,ESE,120,1.0,4.0,77,0.00,,,0.00,0,WeatherCatV1.23B16,2013-11-29 07:03:00,
2013-11-29 01:04:00,20.5,14.5,30.48,ESE,120,1.0,5.0,77,0.00,,,0.00,0,WeatherCatV1.23B16,2013-11-29 07:04:00,
2013-11-29 01:06:00,20.4,14.4,30.49,ESE,120,4.0,4.0,77,0.00,,,0.00,0,WeatherCatV1.23B16,2013-11-29 07:06:00,
2013-11-29 01:07:00,20.4,14.4,30.49,ESE,120,2.0,4.0,77,0.00,,,0.00,0,WeatherCatV1.23B16,2013-11-29 07:07:00,
2013-11-29 01:08:00,20.4,14.4,30.49,ESE,119,0.0,4.0,77,0.00,,,0.00,0,WeatherCatV1.23B16,2013-11-29 07:08:00,
2013-11-29 01:09:00,20.4,14.4,30.48,ESE,120,0.0,4.0,77,0.00,,,0.00,0,WeatherCatV1.23B16,2013-11-29 07:09:00,
2013-11-29 01:11:00,20.4,14.4,30.48,ESE,119,0.0,3.0,77,0.00,,,0.00,0,WeatherCatV1.23B16,2013-11-29 07:11:00,
2013-11-29 01:12:00,20.5,14.8,30.48,ESE,120,1.0,2.0,78,0.00,,,0.00,0,WeatherCatV1.23B16,2013-11-29 07:12:00,
2013-11-29 01:13:00,20.5,14.8,30.48,ESE,120,0.0,2.0,78,0.00,,,0.00,0,WeatherCatV1.23B16,2013-11-29 07:13:00,
2013-11-29 01:14:00,20.4,14.6,30.48,ESE,120,0.0,2.0,78,0.00,,,0.00,0,WeatherCatV1.23B16,2013-11-29 07:14:00,
2013-11-29 01:17:00,20.4,14.6,30.48,ESE,120,2.0,4.0,78,0.00,,,0.00,0,WeatherCatV1.23B16,2013-11-29 07:17:00,
2013-11-29 01:18:00,20.4,14.6,30.48,ESE,120,1.0,3.0,78,0.00,,,0.00,0,WeatherCatV1.23B16,2013-11-29 07:18:00,
2013-11-29 01:19:00,20.4,14.6,30.48,ESE,119,3.0,3.0,78,0.00,,,0.00,0,WeatherCatV1.23B16,2013-11-29 07:19:00,
2013-11-29 01:20:00,20.3,14.6,30.48,ESE,119,3.0,4.0,78,0.00,,,0.00,0,WeatherCatV1.23B16,2013-11-29 07:20:00,
2013-11-29 01:22:00,20.3,14.6,30.48,ESE,120,0.0,2.0,78,0.00,,,0.00,0,WeatherCatV1.23B16,2013-11-29 07:22:00,
2013-11-29 01:23:00,20.3,14.6,30.48,ESE,120,3.0,4.0,78,0.00,,,0.00,0,WeatherCatV1.23B16,2013-11-29 07:23:00,
2013-11-29 01:24:00,20.3,14.6,30.48,ESE,119,1.0,4.0,78,0.00,,,0.00,0,WeatherCatV1.23B16,2013-11-29 07:24:00,
2013-11-29 01:25:00,20.3,14.6,30.48,ESE,120,0.0,3.0,78,0.00,,,0.00,0,WeatherCatV1.23B16,2013-11-29 07:25:00,
2013-11-29 01:27:00,20.3,14.6,30.48,ESE,120,2.0,3.0,78,0.00,,,0.00,0,WeatherCatV1.23B16,2013-11-29 07:27:00,
2013-11-29 01:28:00,20.3,14.6,30.48,ESE,119,1.0,3.0,78,0.00,,,0.00,0,WeatherCatV1.23B16,2013-11-29 07:28:00,
2013-11-29 01:29:00,20.3,14.6,30.48,ESE,119,3.0,4.0,78,0.00,,,0.00,0,WeatherCatV1.23B16,2013-11-29 07:29:00,
2013-11-29 01:30:00,20.3,14.6,30.48,ESE,119,2.0,4.0,78,0.00,,,0.00,0,WeatherCatV1.23B16,2013-11-29 07:30:00,
2013-11-29 01:32:00,20.3,14.6,30.48,ESE,120,0.0,3.0,78,0.00,,,0.00,0,WeatherCatV1.23B16,2013-11-29 07:32:00,
2013-11-29 01:33:00,20.3,14.6,30.48,ESE,120,0.0,3.0,78,0.00,,,0.00,0,WeatherCatV1.23B16,2013-11-29 07:33:00,
2013-11-29 01:34:00,20.3,14.6,30.48,ESE,120,2.0,4.0,78,0.00,,,0.00,0,WeatherCatV1.23B16,2013-11-29 07:34:00,
2013-11-29 01:36:00,20.2,14.2,30.48,ESE,119,1.0,4.0,77,0.00,,,0.00,0,WeatherCatV1.23B16,2013-11-29 07:36:00,
2013-11-29 01:37:00,20.2,14.2,30.48,ESE,119,3.0,4.0,77,0.00,,,0.00,0,WeatherCatV1.23B16,2013-11-29 07:37:00,
2013-11-29 01:38:00,20.1,14.1,30.48,ESE,119,0.0,4.0,77,0.00,,,0.00,0,WeatherCatV1.23B16,2013-11-29 07:38:00,
2013-11-29 01:39:00,20.1,14.1,30.48,ESE,119,1.0,2.0,77,0.00,,,0.00,0,WeatherCatV1.23B16,2013-11-29 07:39:00,
2013-11-29 01:40:00,20.0,14.0,30.48,ESE,120,3.0,3.0,77,0.00,,,0.00,0,WeatherCatV1.23B16,2013-11-29 07:40:00,
2013-11-29 01:41:00,20.0,14.0,30.48,ESE,120,0.0,3.0,77,0.00,,,0.00,0,WeatherCatV1.23B16,2013-11-29 07:41:00,
2013-11-29 01:42:00,20.0,14.0,30.48,ESE,120,5.0,5.0,77,0.00,,,0.00,0,WeatherCatV1.23B16,2013-11-29 07:42:00,
2013-11-29 01:43:00,19.9,13.9,30.48,ESE,120,2.0,5.0,77,0.00,,,0.00,0,WeatherCatV1.23B16,2013-11-29 07:43:00,
2013-11-29 01:44:00,19.9,13.9,30.48,ESE,120,0.0,5.0,77,0.00,,,0.00,0,WeatherCatV1.23B16,2013-11-29 07:44:00,
2013-11-29 01:45:00,19.9,13.9,30.48,ESE,121,3.0,3.0,77,0.00,,,0.00,0,WeatherCatV1.23B16,2013-11-29 07:45:00,
2013-11-29 01:46:00,19.8,13.8,30.48,ESE,121,0.0,5.0,77,0.00,,,0.00,0,WeatherCatV1.23B16,2013-11-29 07:46:00,
2013-11-29 01:48:00,19.8,13.8,30.47,ESE,121,0.0,2.0,77,0.00,,,0.00,0,WeatherCatV1.23B16,2013-11-29 07:48:00,
2013-11-29 01:49:00,19.8,13.8,30.47,ESE,121,1.0,5.0,77,0.00,,,0.00,0,WeatherCatV1.23B16,2013-11-29 07:49:00,
2013-11-29 01:50:00,19.8,13.8,30.47,ESE,121,1.0,5.0,77,0.00,,,0.00,0,WeatherCatV1.23B16,2013-11-29 07:50:00,
2013-11-29 01:52:00,19.7,14.0,30.48,ESE,121,1.0,4.0,78,0.00,,,0.00,0,WeatherCatV1.23B16,2013-11-29 07:52:00,
2013-11-29 01:53:00,19.7,14.0,30.48,ESE,121,0.0,3.0,78,0.00,,,0.00,0,WeatherCatV1.23B16,2013-11-29 07:53:00,
2013-11-29 01:54:00,19.7,14.0,30.48,ESE,121,1.0,1.0,78,0.00,,,0.00,0,WeatherCatV1.23B16,2013-11-29 07:54:00,
2013-11-29 01:55:00,19.7,14.0,30.48,ESE,121,3.0,6.0,78,0.00,,,0.00,0,WeatherCatV1.23B16,2013-11-29 07:55:00,
2013-11-29 01:58:00,19.7,14.0,30.47,ESE,122,5.0,6.0,78,0.00,,,0.00,0,WeatherCatV1.23B16,2013-11-29 07:58:00,
2013-11-29 02:00:00,19.7,14.0,30.47,ESE,122,0.0,6.0,78,0.00,,,0.00,0,WeatherCatV1.23B16,2013-11-29 08:00:00,
2013-11-29 02:03:00,19.7,14.0,30.47,ESE,122,1.0,5.0,78,0.00,,,0.00,0,WeatherCatV1.23B16,2013-11-29 08:03:00,
2013-11-29 02:05:00,19.6,13.9,30.47,ESE,122,2.0,2.0,78,0.00,,,0.00,0,WeatherCatV1.23B16,2013-11-29 08:05:00,
2013-11-29 02:06:00,19.6,13.9,30.47,ESE,122,2.0,2.0,78,0.00,,,0.00,0,WeatherCatV1.23B16,2013-11-29 08:06:00,
2013-11-29 02:09:00,19.6,13.9,30.47,ESE,122,0.0,4.0,78,0.00,,,0.00,0,WeatherCatV1.23B16,2013-11-29 08:09:00,
2013-11-29 02:10:00,19.5,13.8,30.47,ESE,123,4.0,5.0,78,0.00,,,0.00,0,WeatherCatV1.23B16,2013-11-29 08:10:00,
2013-11-29 02:11:00,19.5,13.8,30.47,ESE,123,0.0,5.0,78,0.00,,,0.00,0,WeatherCatV1.23B16,2013-11-29 08:11:00,
2013-11-29 02:13:00,19.5,13.8,30.47,ESE,123,2.0,2.0,78,0.00,,,0.00,0,WeatherCatV1.23B16,2013-11-29 08:13:00,
2013-11-29 02:14:00,19.5,13.8,30.47,ESE,123,3.0,6.0,78,0.00,,,0.00,0,WeatherCatV1.23B16,2013-11-29 08:14:00,
2013-11-29 02:15:00,19.5,13.8,30.47,ESE,123,1.0,2.0,78,0.00,,,0.00,0,WeatherCatV1.23B16,2013-11-29 08:15:00,
2013-11-29 02:16:00,19.4,13.7,30.47,ESE,123,3.0,3.0,78,0.00,,,0.00,0,WeatherCatV1.23B16,2013-11-29 08:16:00,
2013-11-29 02:19:00,19.4,13.7,30.47,ESE,123,2.0,4.0,78,0.00,,,0.00,0,WeatherCatV1.23B16,2013-11-29 08:19:00,
2013-11-29 02:21:00,19.4,13.7,30.48,ESE,123,2.0,4.0,78,0.00,,,0.00,0,WeatherCatV1.23B16,2013-11-29 08:21:00,
2013-11-29 02:22:00,19.3,13.6,30.47,ESE,123,3.0,4.0,78,0.00,,,0.00,0,WeatherCatV1.23B16,2013-11-29 08:22:00,
2013-11-29 02:24:00,19.3,13.6,30.47,ESE,123,2.0,6.0,78,0.00,,,0.00,0,WeatherCatV1.23B16,2013-11-29 08:24:00,
2013-11-29 02:26:00,19.2,13.5,30.47,ESE,122,2.0,3.0,78,0.00,,,0.00,0,WeatherCatV1.23B16,2013-11-29 08:26:00,
2013-11-29 02:27:00,19.2,13.5,30.47,ESE,123,1.0,3.0,78,0.00,,,0.00,0,WeatherCatV1.23B16,2013-11-29 08:27:00,
2013-11-29 02:29:00,19.1,13.4,30.47,ESE,123,1.0,2.0,78,0.00,,,0.00,0,WeatherCatV1.23B16,2013-11-29 08:29:00,
2013-11-29 02:30:00,19.0,13.3,30.47,ESE,122,0.0,2.0,78,0.00,,,0.00,0,WeatherCatV1.23B16,2013-11-29 08:30:00,
2013-11-29 02:31:00,19.0,13.3,30.47,ESE,123,0.0,2.0,78,0.00,,,0.00,0,WeatherCatV1.23B16,2013-11-29 08:31:00,
2013-11-29 02:32:00,19.0,13.3,30.47,ESE,123,1.0,3.0,78,0.00,,,0.00,0,WeatherCatV1.23B16,2013-11-29 08:32:00,
2013-11-29 02:35:00,18.9,13.2,30.48,ESE,123,2.0,3.0,78,0.00,,,0.00,0,WeatherCatV1.23B16,2013-11-29 08:35:00,
2013-11-29 02:36:00,19.0,13.3,30.47,ESE,123,4.0,4.0,78,0.00,,,0.00,0,WeatherCatV1.23B16,2013-11-29 08:36:00,
2013-11-29 02:37:00,18.9,13.2,30.47,ESE,123,1.0,4.0,78,0.00,,,0.00,0,WeatherCatV1.23B16,2013-11-29 08:37:00,
2013-11-29 02:41:00,19.0,13.6,30.47,ESE,123,1.0,3.0,79,0.00,,,0.00,0,WeatherCatV1.23B16,2013-11-29 08:41:00,
2013-11-29 02:42:00,19.0,13.6,30.47,ESE,123,2.0,2.0,79,0.00,,,0.00,0,WeatherCatV1.23B16,2013-11-29 08:42:00,
2013-11-29 02:46:00,18.9,13.5,30.47,ESE,123,1.0,2.0,79,0.00,,,0.00,0,WeatherCatV1.23B16,2013-11-29 08:46:00,
2013-11-29 02:47:00,18.9,13.5,30.47,ESE,123,0.0,2.0,79,0.00,,,0.00,0,WeatherCatV1.23B16,2013-11-29 08:47:00,
2013-11-29 02:48:00,18.9,13.5,30.47,ESE,122,0.0,1.0,79,0.00,,,0.00,0,WeatherCatV1.23B16,2013-11-29 08:48:00,
2013-11-29 02:51:00,18.8,13.4,30.47,ESE,122,1.0,2.0,79,0.00,,,0.00,0,WeatherCatV1.23B16,2013-11-29 08:51:00,
2013-11-29 02:52:00,18.7,13.3,30.47,ESE,122,0.0,2.0,79,0.00,,,0.00,0,WeatherCatV1.23B16,2013-11-29 08:52:00,
2013-11-29 02:53:00,18.7,13.3,30.47,ESE,123,1.0,3.0,79,0.00,,,0.00,0,WeatherCatV1.23B16,2013-11-29 08:53:00,
2013-11-29 02:56:00,18.6,13.2,30.46,ESE,123,1.0,2.0,79,0.00,,,0.00,0,WeatherCatV1.23B16,2013-11-29 08:56:00,
2013-11-29 02:57:00,18.6,13.2,30.46,ESE,123,1.0,3.0,79,0.00,,,0.00,0,WeatherCatV1.23B16,2013-11-29 08:57:00,
2013-11-29 02:58:00,18.5,13.1,30.47,ESE,123,1.0,3.0,79,0.00,,,0.00,0,WeatherCatV1.23B16,2013-11-29 08:58:00,
2013-11-29 03:01:00,18.5,13.1,30.46,ESE,122,2.0,2.0,79,0.00,,,0.00,0,WeatherCatV1.23B16,2013-11-29 09:01:00,
2013-11-29 03:02:00,18.5,13.1,30.46,ESE,122,2.0,2.0,79,0.00,,,0.00,0,WeatherCatV1.23B16,2013-11-29 09:02:00,
2013-11-29 03:03:00,18.6,13.2,30.46,ESE,122,1.0,3.0,79,0.00,,,0.00,0,WeatherCatV1.23B16,2013-11-29 09:03:00,
2013-11-29 03:06:00,18.6,13.2,30.46,ESE,122,0.0,3.0,79,0.00,,,0.00,0,WeatherCatV1.23B16,2013-11-29 09:06:00,
2013-11-29 03:07:00,18.6,13.2,30.46,ESE,122,2.0,2.0,79,0.00,,,0.00,0,WeatherCatV1.23B16,2013-11-29 09:07:00,
2013-11-29 03:08:00,18.6,13.2,30.46,ESE,122,0.0,2.0,79,0.00,,,0.00,0,WeatherCatV1.23B16,2013-11-29 09:08:00,
2013-11-29 03:11:00,18.5,13.1,30.46,ESE,123,2.0,2.0,79,0.00,,,0.00,0,WeatherCatV1.23B16,2013-11-29 09:11:00,
2013-11-29 03:13:00,18.4,13.0,30.46,ESE,123,0.0,3.0,79,0.00,,,0.00,0,WeatherCatV1.23B16,2013-11-29 09:13:00,
2013-11-29 03:16:00,18.4,13.0,30.46,ESE,123,2.0,3.0,79,0.00,,,0.00,0,WeatherCatV1.23B16,2013-11-29 09:16:00,
2013-11-29 03:18:00,18.4,13.0,30.46,ESE,123,3.0,4.0,79,0.00,,,0.00,0,WeatherCatV1.23B16,2013-11-29 09:18:00,
2013-11-29 03:19:00,18.4,13.0,30.46,ESE,122,2.0,4.0,79,0.00,,,0.00,0,WeatherCatV1.23B16,2013-11-29 09:19:00,
2013-11-29 03:22:00,18.4,13.0,30.46,ESE,123,1.0,3.0,79,0.00,,,0.00,0,WeatherCatV1.23B16,2013-11-29 09:22:00,
2013-11-29 03:23:00,18.4,13.0,30.46,ESE,122,1.0,3.0,79,0.00,,,0.00,0,WeatherCatV1.23B16,2013-11-29 09:23:00,
2013-11-29 03:24:00,18.3,12.9,30.46,ESE,122,0.0,3.0,79,0.00,,,0.00,0,WeatherCatV1.23B16,2013-11-29 09:24:00,
2013-11-29 03:27:00,18.3,12.9,30.46,ESE,123,0.0,5.0,79,0.00,,,0.00,0,WeatherCatV1.23B16,2013-11-29 09:27:00,
2013-11-29 03:28:00,18.4,13.3,30.46,SE,125,4.0,6.0,80,0.00,,,0.00,0,WeatherCatV1.23B16,2013-11-29 09:28:00,
2013-11-29 03:29:00,18.4,13.3,30.46,SE,125,4.0,6.0,80,0.00,,,0.00,0,WeatherCatV1.23B16,2013-11-29 09:29:00,
2013-11-29 03:32:00,18.6,13.5,30.46,SE,128,1.0,6.0,80,0.00,,,0.00,0,WeatherCatV1.23B16,2013-11-29 09:32:00,
2013-11-29 03:34:00,18.6,13.2,30.46,SE,129,2.0,7.0,79,0.00,,,0.00,0,WeatherCatV1.23B16,2013-11-29 09:34:00,
2013-11-29 03:35:00,18.6,13.2,30.46,SE,134,4.0,9.0,79,0.00,,,0.00,0,WeatherCatV1.23B16,2013-11-29 09:35:00,
2013-11-29 03:37:00,18.7,13.3,30.45,SE,134,2.0,4.0,79,0.00,,,0.00,0,WeatherCatV1.23B16,2013-11-29 09:37:00,
2013-11-29 03:39:00,18.6,13.2,30.45,SE,135,2.0,7.0,79,0.00,,,0.00,0,WeatherCatV1.23B16,2013-11-29 09:39:00,
2013-11-29 03:40:00,18.6,13.2,30.46,SE,135,3.0,7.0,79,0.00,,,0.00,0,WeatherCatV1.23B16,2013-11-29 09:40:00,
2013-11-29 03:42:00,18.6,13.2,30.46,SE,136,1.0,6.0,79,0.00,,,0.00,0,WeatherCatV1.23B16,2013-11-29 09:42:00,
2013-11-29 03:43:00,18.6,13.2,30.46,SE,136,1.0,6.0,79,0.00,,,0.00,0,WeatherCatV1.23B16,2013-11-29 09:43:00,
2013-11-29 03:44:00,18.6,13.2,30.46,SE,139,4.0,7.0,79,0.00,,,0.00,0,WeatherCatV1.23B16,2013-11-29 09:44:00,
2013-11-29 03:45:00,18.6,13.2,30.46,SE,140,5.0,7.0,79,0.00,,,0.00,0,WeatherCatV1.23B16,2013-11-29 09:45:00,
2013-11-29 03:48:00,18.7,13.3,30.45,SE,146,4.0,7.0,79,0.00,,,0.00,0,WeatherCatV1.23B16,2013-11-29 09:48:00,
2013-11-29 03:50:00,18.7,13.3,30.46,SSE,148,1.0,7.0,79,0.00,,,0.00,0,WeatherCatV1.23B16,2013-11-29 09:50:00,
2013-11-29 03:51:00,18.8,13.4,30.46,SSE,148,2.0,4.0,79,0.00,,,0.00,0,WeatherCatV1.23B16,2013-11-29 09:51:00,
2013-11-29 03:53:00,18.8,13.4,30.46,SSE,149,6.0,6.0,79,0.00,,,0.00,0,WeatherCatV1.23B16,2013-11-29 09:53:00,
2013-11-29 03:55:00,18.9,13.5,30.46,SSE,152,4.0,9.0,79,0.00,,,0.00,0,WeatherCatV1.23B16,2013-11-29 09:55:00,
2013-11-29 03:56:00,18.9,13.5,30.46,SSE,152,4.0,9.0,79,0.00,,,0.00,0,WeatherCatV1.23B16,2013-11-29 09:56:00,
2013-11-29 03:57:00,18.9,13.5,30.46,SSE,152,0.0,9.0,79,0.00,,,0.00,0,WeatherCatV1.23B16,2013-11-29 09:57:00,
2013-11-29 03:58:00,19.0,13.6,30.46,SSE,153,6.0,7.0,79,0.00,,,0.00,0,WeatherCatV1.23B16,2013-11-29 09:58:00,
2013-11-29 04:00:00,19.1,13.7,30.46,SSE,156,6.0,6.0,79,0.00,,,0.00,0,WeatherCatV1.23B16,2013-11-29 10:00:00,
2013-11-29 04:01:00,19.2,13.8,30.46,SSE,156,6.0,6.0,79,0.00,,,0.00,0,WeatherCatV1.23B16,2013-11-29 10:01:00,
2013-11-29 04:02:00,19.3,13.9,30.46,South,169,7.0,9.0,79,0.00,,,0.00,0,WeatherCatV1.23B16,2013-11-29 10:02:00,
2013-11-29 04:03:00,19.4,14.0,30.46,South,169,3.0,9.0,79,0.00,,,0.00,0,WeatherCatV1.23B16,2013-11-29 10:03:00,
2013-11-29 04:04:00,19.5,14.1,30.45,South,175,3.0,9.0,79,0.00,,,0.00,0,WeatherCatV1.23B16,2013-11-29 10:04:00,
2013-11-29 04:05:00,19.6,14.2,30.45,South,178,3.0,9.0,79,0.00,,,0.00,0,WeatherCatV1.23B16,2013-11-29 10:05:00,
2013-11-29 04:06:00,19.7,14.3,30.45,South,178,0.0,9.0,79,0.00,,,0.00,0,WeatherCatV1.23B16,2013-11-29 10:06:00,
2013-11-29 04:07:00,19.7,14.3,30.45,South,178,1.0,9.0,79,0.00,,,0.00,0,WeatherCatV1.23B16,2013-11-29 10:07:00,
2013-11-29 04:08:00,19.7,14.3,30.45,South,178,3.0,5.0,79,0.00,,,0.00,0,WeatherCatV1.23B16,2013-11-29 10:08:00,
2013-11-29 04:09:00,19.7,14.3,30.45,South,178,3.0,7.0,79,0.00,,,0.00,0,WeatherCatV1.23B16,2013-11-29 10:09:00,
2013-11-29 04:10:00,19.7,14.3,30.45,South,184,6.0,7.0,79,0.00,,,0.00,0,WeatherCatV1.23B16,2013-11-29 10:10:00,
2013-11-29 04:12:00,19.7,14.3,30.45,South,184,0.0,7.0,79,0.00,,,0.00,0,WeatherCatV1.23B16,2013-11-29 10:12:00,
2013-11-29 04:13:00,19.7,14.3,30.45,South,184,3.0,4.0,79,0.00,,,0.00,0,WeatherCatV1.23B16,2013-11-29 10:13:00,
2013-11-29 04:15:00,19.7,14.3,30.45,South,184,2.0,5.0,79,0.00,,,0.00,0,WeatherCatV1.23B16,2013-11-29 10:15:00,
2013-11-29 04:16:00,19.8,14.4,30.45,South,184,3.0,5.0,79,0.00,,,0.00,0,WeatherCatV1.23B16,2013-11-29 10:16:00,
2013-11-29 04:17:00,19.8,14.4,30.45,South,184,3.0,7.0,79,0.00,,,0.00,0,WeatherCatV1.23B16,2013-11-29 10:17:00,
2013-11-29 04:18:00,19.9,14.5,30.45,South,184,3.0,7.0,79,0.00,,,0.00,0,WeatherCatV1.23B16,2013-11-29 10:18:00,
2013-11-29 04:20:00,20.0,14.6,30.45,South,184,6.0,6.0,79,0.00,,,0.00,0,WeatherCatV1.23B16,2013-11-29 10:20:00,
2013-11-29 04:22:00,20.1,14.6,30.45,South,184,2.0,7.0,79,0.00,,,0.00,0,WeatherCatV1.23B16,2013-11-29 10:22:00,
2013-11-29 04:23:00,20.1,14.6,30.45,South,184,2.0,7.0,79,0.00,,,0.00,0,WeatherCatV1.23B16,2013-11-29 10:23:00,
2013-11-29 04:26:00,20.1,14.6,30.45,South,184,5.0,5.0,79,0.00,,,0.00,0,WeatherCatV1.23B16,2013-11-29 10:26:00,
2013-11-29 04:27:00,20.2,14.8,30.45,South,183,2.0,5.0,79,0.00,,,0.00,0,WeatherCatV1.23B16,2013-11-29 10:27:00,
2013-11-29 04:28:00,20.2,14.8,30.45,South,184,3.0,4.0,79,0.00,,,0.00,0,WeatherCatV1.23B16,2013-11-29 10:28:00,
2013-11-29 04:31:00,20.3,14.9,30.45,South,184,2.0,7.0,79,0.00,,,0.00,0,WeatherCatV1.23B16,2013-11-29 10:31:00,
2013-11-29 04:33:00,20.3,14.9,30.45,South,184,0.0,6.0,79,0.00,,,0.00,0,WeatherCatV1.23B16,2013-11-29 10:33:00,
2013-11-29 04:34:00,20.3,14.9,30.45,South,184,5.0,6.0,79,0.00,,,0.00,0,WeatherCatV1.23B16,2013-11-29 10:34:00,
2013-11-29 04:36:00,20.2,14.8,30.45,South,184,3.0,5.0,79,0.00,,,0.00,0,WeatherCatV1.23B16,2013-11-29 10:36:00,
2013-11-29 04:38:00,20.2,14.8,30.45,South,184,1.0,5.0,79,0.00,,,0.00,0,WeatherCatV1.23B16,2013-11-29 10:38:00,
2013-11-29 04:39:00,20.2,14.8,30.45,South,184,6.0,10.0,79,0.00,,,0.00,0,WeatherCatV1.23B16,2013-11-29 10:39:00,
2013-11-29 04:41:00,20.2,14.8,30.45,South,185,2.0,4.0,79,0.00,,,0.00,0,WeatherCatV1.23B16,2013-11-29 10:41:00,
2013-11-29 04:44:00,20.0,14.6,30.44,South,185,3.0,3.0,79,0.00,,,0.00,0,WeatherCatV1.23B16,2013-11-29 10:44:00,
2013-11-29 04:46:00,20.0,14.6,30.45,South,185,2.0,4.0,79,0.00,,,0.00,0,WeatherCatV1.23B16,2013-11-29 10:46:00,
2013-11-29 04:49:00,19.9,14.5,30.45,South,185,4.0,6.0,79,0.00,,,0.00,0,WeatherCatV1.23B16,2013-11-29 10:49:00,
2013-11-29 04:50:00,19.9,14.5,30.45,South,185,4.0,5.0,79,0.00,,,0.00,0,WeatherCatV1.23B16,2013-11-29 10:50:00,
2013-11-29 04:51:00,19.9,14.8,30.45,South,184,1.0,4.0,80,0.00,,,0.00,0,WeatherCatV1.23B16,2013-11-29 10:51:00,
2013-11-29 04:54:00,19.9,14.8,30.45,South,185,4.0,4.0,80,0.00,,,0.00,0,WeatherCatV1.23B16,2013-11-29 10:54:00,
2013-11-29 04:55:00,19.9,14.8,30.45,South,185,0.0,4.0,80,0.00,,,0.00,0,WeatherCatV1.23B16,2013-11-29 10:55:00,
2013-11-29 04:56:00,19.7,14.6,30.45,South,185,0.0,4.0,80,0.00,,,0.00,0,WeatherCatV1.23B16,2013-11-29 10:56:00,
2013-11-29 04:57:00,19.7,14.6,30.45,South,184,2.0,2.0,80,0.00,,,0.00,0,WeatherCatV1.23B16,2013-11-29 10:57:00,
2013-11-29 04:59:00,19.7,14.6,30.45,South,184,2.0,7.0,80,0.00,,,0.00,0,WeatherCatV1.23B16,2013-11-29 10:59:00,
2013-11-29 05:00:00,19.7,14.6,30.45,South,185,4.0,4.0,80,0.00,,,0.00,0,WeatherCatV1.23B16,2013-11-29 11:00:00,
2013-11-29 05:02:00,19.6,14.4,30.45,South,185,0.0,5.0,80,0.00,,,0.00,0,WeatherCatV1.23B16,2013-11-29 11:02:00,
2013-11-29 05:04:00,19.7,14.6,30.45,South,185,1.0,5.0,80,0.00,,,0.00,0,WeatherCatV1.23B16,2013-11-29 11:04:00,
2013-11-29 05:05:00,19.6,14.4,30.45,South,185,2.0,5.0,80,0.00,,,0.00,0,WeatherCatV1.23B16,2013-11-29 11:05:00,
2013-11-29 05:06:00,19.6,14.4,30.44,South,184,2.0,6.0,80,0.00,,,0.00,0,WeatherCatV1.23B16,2013-11-29 11:06:00,
2013-11-29 05:07:00,19.7,14.6,30.45,South,185,3.0,6.0,80,0.00,,,0.00,0,WeatherCatV1.23B16,2013-11-29 11:07:00,
2013-11-29 05:09:00,19.7,14.8,30.44,South,185,2.0,7.0,81,0.00,,,0.00,0,WeatherCatV1.23B16,2013-11-29 11:09:00,
2013-11-29 05:10:00,19.6,14.7,30.44,South,184,3.0,7.0,81,0.00,,,0.00,0,WeatherCatV1.23B16,2013-11-29 11:10:00,
2013-11-29 05:11:00,19.5,14.6,30.45,South,185,1.0,5.0,81,0.00,,,0.00,0,WeatherCatV1.23B16,2013-11-29 11:11:00,
2013-11-29 05:12:00,19.5,14.6,30.44,South,185,4.0,5.0,81,0.00,,,0.00,0,WeatherCatV1.23B16,2013-11-29 11:12:00,
2013-11-29 05:15:00,19.3,14.4,30.44,South,182,1.0,10.0,81,0.00,,,0.00,0,WeatherCatV1.23B16,2013-11-29 11:15:00,
2013-11-29 05:17:00,19.2,14.4,30.44,South,185,4.0,9.0,81,0.00,,,0.00,0,WeatherCatV1.23B16,2013-11-29 11:17:00,
2013-11-29 05:18:00,19.1,14.2,30.44,South,184,1.0,9.0,81,0.00,,,0.00,0,WeatherCatV1.23B16,2013-11-29 11:18:00,
2013-11-29 05:20:00,19.2,14.4,30.45,South,186,3.0,10.0,81,0.00,,,0.00,0,WeatherCatV1.23B16,2013-11-29 11:20:00,
2013-11-29 05:22:00,19.1,14.2,30.44,South,186,4.0,6.0,81,0.00,,,0.00,0,WeatherCatV1.23B16,2013-11-29 11:22:00,
2013-11-29 05:23:00,19.1,14.2,30.44,South,186,3.0,6.0,81,0.00,,,0.00,0,WeatherCatV1.23B16,2013-11-29 11:23:00,
2013-11-29 05:25:00,19.1,14.2,30.44,South,186,6.0,6.0,81,0.00,,,0.00,0,WeatherCatV1.23B16,2013-11-29 11:25:00,
2013-11-29 05:26:00,19.1,14.2,30.43,South,186,3.0,6.0,81,0.00,,,0.00,0,WeatherCatV1.23B16,2013-11-29 11:26:00,
2013-11-29 05:27:00,19.1,14.2,30.44,South,186,0.0,6.0,81,0.00,,,0.00,0,WeatherCatV1.23B16,2013-11-29 11:27:00,
2013-11-29 05:28:00,19.1,14.2,30.43,South,186,1.0,2.0,81,0.00,,,0.00,0,WeatherCatV1.23B16,2013-11-29 11:28:00,
2013-11-29 05:30:00,19.2,14.4,30.43,South,186,2.0,6.0,81,0.00,,,0.00,0,WeatherCatV1.23B16,2013-11-29 11:30:00,
2013-11-29 05:31:00,19.2,14.4,30.43,South,186,1.0,4.0,81,0.00,,,0.00,0,WeatherCatV1.23B16,2013-11-29 11:31:00,
2013-11-29 05:32:00,19.3,14.7,30.44,South,186,3.0,5.0,82,0.00,,,0.00,0,WeatherCatV1.23B16,2013-11-29 11:32:00,
2013-11-29 05:33:00,19.3,14.7,30.44,South,186,2.0,5.0,82,0.00,,,0.00,0,WeatherCatV1.23B16,2013-11-29 11:33:00,
2013-11-29 05:36:00,19.3,14.7,30.43,South,186,2.0,6.0,82,0.00,,,0.00,0,WeatherCatV1.23B16,2013-11-29 11:36:00,
2013-11-29 05:37:00,19.3,14.7,30.43,South,186,4.0,6.0,82,0.00,,,0.00,0,WeatherCatV1.23B16,2013-11-29 11:37:00,
2013-11-29 05:38:00,19.3,14.7,30.43,South,186,2.0,6.0,82,0.00,,,0.00,0,WeatherCatV1.23B16,2013-11-29 11:38:00,
2013-11-29 05:41:00,19.4,14.8,30.43,South,186,4.0,5.0,82,0.00,,,0.00,0,WeatherCatV1.23B16,2013-11-29 11:41:00,
2013-11-29 05:42:00,19.3,14.7,30.43,South,186,4.0,5.0,82,0.00,,,0.00,0,WeatherCatV1.23B16,2013-11-29 11:42:00,
2013-11-29 05:43:00,19.3,14.7,30.43,South,186,0.0,5.0,82,0.00,,,0.00,0,WeatherCatV1.23B16,2013-11-29 11:43:00,
2013-11-29 05:46:00,19.3,14.7,30.43,South,186,2.0,7.0,82,0.00,,,0.00,0,WeatherCatV1.23B16,2013-11-29 11:46:00,
2013-11-29 05:47:00,19.3,14.7,30.43,South,186,0.0,7.0,82,0.00,,,0.00,0,WeatherCatV1.23B16,2013-11-29 11:47:00,
2013-11-29 05:48:00,19.3,14.7,30.43,South,186,3.0,4.0,82,0.00,,,0.00,0,WeatherCatV1.23B16,2013-11-29 11:48:00,
2013-11-29 05:51:00,19.1,14.5,30.43,South,186,2.0,3.0,82,0.00,,,0.00,0,WeatherCatV1.23B16,2013-11-29 11:51:00,
2013-11-29 05:52:00,19.0,14.4,30.43,South,186,1.0,4.0,82,0.00,,,0.00,0,WeatherCatV1.23B16,2013-11-29 11:52:00,
2013-11-29 05:53:00,19.0,14.4,30.43,South,186,4.0,4.0,82,0.00,,,0.00,0,WeatherCatV1.23B16,2013-11-29 11:53:00,
2013-11-29 05:56:00,19.1,14.5,30.43,South,186,3.0,9.0,82,0.00,,,0.00,0,WeatherCatV1.23B16,2013-11-29 11:56:00,
2013-11-29 05:57:00,19.1,14.5,30.43,South,186,3.0,9.0,82,0.00,,,0.00,0,WeatherCatV1.23B16,2013-11-29 11:57:00,
2013-11-29 05:58:00,19.1,14.5,30.43,South,186,2.0,7.0,82,0.00,,,0.00,0,WeatherCatV1.23B16,2013-11-29 11:58:00,
2013-11-29 05:59:00,19.2,14.6,30.43,South,186,3.0,5.0,82,0.00,,,0.00,0,WeatherCatV1.23B16,2013-11-29 11:59:00,
2013-11-29 06:01:00,19.3,14.7,30.43,South,186,1.0,7.0,82,0.00,,,0.00,0,WeatherCatV1.23B16,2013-11-29 12:01:00,
2013-11-29 06:02:00,19.4,14.8,30.43,South,186,2.0,4.0,82,0.00,,,0.00,0,WeatherCatV1.23B16,2013-11-29 12:02:00,
2013-11-29 06:03:00,19.5,14.9,30.43,South,186,2.0,7.0,82,0.00,,,0.00,0,WeatherCatV1.23B16,2013-11-29 12:03:00,
2013-11-29 06:04:00,19.6,15.0,30.43,South,187,3.0,10.0,82,0.00,,,0.00,0,WeatherCatV1.23B16,2013-11-29 12:04:00,
2013-11-29 06:07:00,19.7,15.1,30.43,South,190,6.0,10.0,82,0.00,,,0.00,0,WeatherCatV1.23B16,2013-11-29 12:07:00,
2013-11-29 06:08:00,19.7,15.1,30.43,South,190,2.0,10.0,82,0.00,,,0.00,0,WeatherCatV1.23B16,2013-11-29 12:08:00,
2013-11-29 06:09:00,19.7,15.1,30.43,South,190,3.0,10.0,82,0.00,,,0.00,0,WeatherCatV1.23B16,2013-11-29 12:09:00,
2013-11-29 06:12:00,20.0,15.4,30.43,SSW,192,3.0,7.0,82,0.00,,,0.00,0,WeatherCatV1.23B16,2013-11-29 12:12:00,
2013-11-29 06:13:00,20.1,15.5,30.43,SSW,192,3.0,7.0,82,0.00,,,0.00,0,WeatherCatV1.23B16,2013-11-29 12:13:00,
2013-11-29 06:14:00,20.2,15.6,30.43,SSW,193,2.0,4.0,82,0.00,,,0.00,0,WeatherCatV1.23B16,2013-11-29 12:14:00,
2013-11-29 06:15:00,20.4,15.8,30.43,SSW,192,2.0,9.0,82,0.00,,,0.00,0,WeatherCatV1.23B16,2013-11-29 12:15:00,
2013-11-29 06:17:00,20.4,15.8,30.43,SSW,192,3.0,8.0,82,0.00,,,0.00,0,WeatherCatV1.23B16,2013-11-29 12:17:00,
2013-11-29 06:18:00,20.6,16.0,30.43,South,190,3.0,8.0,82,0.00,,,0.00,0,WeatherCatV1.23B16,2013-11-29 12:18:00,
2013-11-29 06:19:00,20.6,16.0,30.43,South,190,2.0,5.0,82,0.00,,,0.00,0,WeatherCatV1.23B16,2013-11-29 12:19:00,
2013-11-29 06:20:00,20.6,16.0,30.43,South,190,6.0,6.0,82,0.00,,,0.00,0,WeatherCatV1.23B16,2013-11-29 12:20:00,
2013-11-29 06:22:00,20.7,16.1,30.43,South,190,0.0,6.0,82,0.00,,,0.00,0,WeatherCatV1.23B16,2013-11-29 12:22:00,
2013-11-29 06:23:00,20.6,16.0,30.43,South,190,2.0,3.0,82,0.00,,,0.00,0,WeatherCatV1.23B16,2013-11-29 12:23:00,
2013-11-29 06:24:00,20.7,16.1,30.43,South,190,3.0,4.0,82,0.00,,,0.00,0,WeatherCatV1.23B16,2013-11-29 12:24:00,
2013-11-29 06:25:00,20.6,16.0,30.43,South,190,0.0,4.0,82,0.00,,,0.00,0,WeatherCatV1.23B16,2013-11-29 12:25:00,
2013-11-29 06:27:00,20.6,16.0,30.43,South,190,0.0,5.0,82,0.00,,,0.00,0,WeatherCatV1.23B16,2013-11-29 12:27:00,
2013-11-29 06:29:00,20.6,16.0,30.43,South,190,2.0,3.0,82,0.00,,,0.00,0,WeatherCatV1.23B16,2013-11-29 12:29:00,
2013-11-29 06:30:00,20.6,16.0,30.43,South,190,4.0,9.0,82,0.00,,,0.00,0,WeatherCatV1.23B16,2013-11-29 12:30:00,
2013-11-29 06:31:00,20.6,16.0,30.43,South,190,4.0,9.0,82,0.00,,,0.00,0,WeatherCatV1.23B16,2013-11-29 12:31:00,
2013-11-29 06:32:00,20.6,16.0,30.43,South,190,4.0,6.0,82,0.00,,,0.00,0,WeatherCatV1.23B16,2013-11-29 12:32:00,
2013-11-29 06:34:00,20.7,16.1,30.42,South,190,4.0,4.0,82,0.00,,,0.00,0,WeatherCatV1.23B16,2013-11-29 12:34:00,
2013-11-29 06:35:00,20.7,16.1,30.42,South,190,3.0,6.0,82,0.00,,,0.00,0,WeatherCatV1.23B16,2013-11-29 12:35:00,
2013-11-29 06:36:00,20.7,16.1,30.42,South,190,2.0,6.0,82,0.00,,,0.00,0,WeatherCatV1.23B16,2013-11-29 12:36:00,
2013-11-29 06:37:00,20.7,16.1,30.42,South,190,6.0,6.0,82,0.00,,,0.00,0,WeatherCatV1.23B16,2013-11-29 12:37:00,
2013-11-29 06:39:00,20.7,16.1,30.42,South,190,3.0,8.0,82,0.00,,,0.00,0,WeatherCatV1.23B16,2013-11-29 12:39:00,
2013-11-29 06:40:00,20.7,16.1,30.42,South,190,4.0,8.0,82,0.00,,,0.00,0,WeatherCatV1.23B16,2013-11-29 12:40:00,
2013-11-29 06:42:00,20.6,16.0,30.42,South,191,0.0,12.0,82,0.00,,,0.00,0,WeatherCatV1.23B16,2013-11-29 12:42:00,
2013-11-29 06:44:00,20.6,15.7,30.42,SSW,194,5.0,9.0,81,0.00,,,0.00,0,WeatherCatV1.23B16,2013-11-29 12:44:00,
2013-11-29 06:45:00,20.6,15.7,30.42,South,190,5.0,10.0,81,0.00,,,0.00,0,WeatherCatV1.23B16,2013-11-29 12:45:00,
2013-11-29 06:46:00,20.7,16.1,30.42,South,190,2.0,10.0,82,0.00,,,0.00,0,WeatherCatV1.23B16,2013-11-29 12:46:00,
2013-11-29 06:47:00,20.7,16.1,30.42,South,188,5.0,7.0,82,0.00,,,0.00,0,WeatherCatV1.23B16,2013-11-29 12:47:00,
2013-11-29 06:48:00,20.7,16.1,30.42,South,186,6.0,9.0,82,0.00,,,0.00,0,WeatherCatV1.23B16,2013-11-29 12:48:00,
2013-11-29 06:49:00,20.7,16.1,30.41,South,182,3.0,10.0,82,0.00,,,0.00,0,WeatherCatV1.23B16,2013-11-29 12:49:00,
2013-11-29 06:50:00,20.7,16.1,30.41,South,182,6.0,10.0,82,0.00,,,0.00,0,WeatherCatV1.23B16,2013-11-29 12:50:00,
2013-11-29 06:51:00,20.7,15.8,30.41,South,178,6.0,9.0,81,0.00,,,0.00,0,WeatherCatV1.23B16,2013-11-29 12:51:00,
2013-11-29 06:53:00,20.7,15.8,30.41,South,180,2.0,11.0,81,0.00,,,0.00,0,WeatherCatV1.23B16,2013-11-29 12:53:00,
2013-11-29 06:54:00,20.7,16.1,30.41,South,190,3.0,10.0,82,0.00,,,0.00,0,WeatherCatV1.23B16,2013-11-29 12:54:00,
2013-11-29 06:55:00,20.7,15.8,30.41,South,190,4.0,10.0,81,0.00,,,0.00,0,WeatherCatV1.23B16,2013-11-29 12:55:00,
2013-11-29 06:56:00,20.7,15.8,30.41,South,190,3.0,9.0,81,0.00,,,0.00,0,WeatherCatV1.23B16,2013-11-29 12:56:00,
2013-11-29 06:57:00,20.7,15.8,30.41,South,186,7.0,12.0,81,0.00,,,0.00,0,WeatherCatV1.23B16,2013-11-29 12:57:00,
2013-11-29 06:58:00,20.7,15.8,30.41,South,186,3.0,12.0,81,0.00,,,0.00,0,WeatherCatV1.23B16,2013-11-29 12:58:00,
2013-11-29 07:00:00,20.7,15.8,30.41,South,186,1.0,7.0,81,0.00,,,0.00,0,WeatherCatV1.23B16,2013-11-29 13:00:00,
2013-11-29 07:01:00,20.7,15.8,30.41,South,189,4.0,11.0,81,0.00,,,0.00,0,WeatherCatV1.23B16,2013-11-29 13:01:00,
2013-11-29 07:02:00,20.7,15.8,30.41,South,189,2.0,4.0,81,0.00,,,0.00,0,WeatherCatV1.23B16,2013-11-29 13:02:00,
2013-11-29 07:03:00,20.7,15.8,30.41,South,189,4.0,5.0,81,0.00,,,0.00,0,WeatherCatV1.23B16,2013-11-29 13:03:00,
2013-11-29 07:05:00,20.7,15.8,30.41,South,189,2.0,7.0,81,0.00,,,0.00,0,WeatherCatV1.23B16,2013-11-29 13:05:00,
2013-11-29 07:06:00,20.7,15.8,30.41,South,188,3.0,7.0,81,0.00,,,0.00,0,WeatherCatV1.23B16,2013-11-29 13:06:00,
2013-11-29 07:07:00,20.6,15.7,30.42,South,188,5.0,8.0,81,0.00,,,0.00,0,WeatherCatV1.23B16,2013-11-29 13:07:00,
2013-11-29 07:08:00,20.6,15.7,30.41,South,189,7.0,8.0,81,0.00,,,0.00,0,WeatherCatV1.23B16,2013-11-29 13:08:00,
2013-11-29 07:09:00,20.6,15.7,30.41,South,191,2.0,9.0,81,0.00,,,0.00,0,WeatherCatV1.23B16,2013-11-29 13:09:00,
2013-11-29 07:11:00,20.5,15.6,30.42,SSW,196,7.0,8.0,81,0.00,,,0.00,0,WeatherCatV1.23B16,2013-11-29 13:11:00,
2013-11-29 07:12:00,20.5,15.6,30.42,South,187,5.0,9.0,81,0.00,,,0.00,0,WeatherCatV1.23B16,2013-11-29 13:12:00,
2013-11-29 07:13:00,20.5,15.6,30.42,South,188,4.0,9.0,81,0.00,,,0.00,0,WeatherCatV1.23B16,2013-11-29 13:13:00,
2013-11-29 07:14:00,20.4,15.5,30.42,South,187,3.0,9.0,81,0.00,,,0.00,0,WeatherCatV1.23B16,2013-11-29 13:14:00,
2013-11-29 07:16:00,20.4,15.5,30.42,South,183,4.0,9.0,81,0.00,,,0.00,0,WeatherCatV1.23B16,2013-11-29 13:16:00,
2013-11-29 07:17:00,20.4,15.5,30.42,South,182,4.0,9.0,81,0.00,,,0.00,0,WeatherCatV1.23B16,2013-11-29 13:17:00,
2013-11-29 07:18:00,20.3,15.4,30.42,South,185,1.0,7.0,81,0.00,,,0.00,0,WeatherCatV1.23B16,2013-11-29 13:18:00,
2013-11-29 07:19:00,20.3,15.4,30.41,South,185,4.0,5.0,81,0.00,,,0.00,0,WeatherCatV1.23B16,2013-11-29 13:19:00,
2013-11-29 07:21:00,20.1,15.2,30.41,South,184,4.0,4.0,81,0.00,,,0.00,0,WeatherCatV1.23B16,2013-11-29 13:21:00,
2013-11-29 07:22:00,20.1,15.2,30.41,South,186,1.0,7.0,81,0.00,,,0.00,0,WeatherCatV1.23B16,2013-11-29 13:22:00,
2013-11-29 07:23:00,20.0,15.1,30.41,South,186,1.0,7.0,81,0.00,,,0.00,0,WeatherCatV1.23B16,2013-11-29 13:23:00,
2013-11-29 07:24:00,20.0,15.1,30.41,South,186,4.0,5.0,81,0.00,,,0.00,0,WeatherCatV1.23B16,2013-11-29 13:24:00,
2013-11-29 07:26:00,20.0,15.1,30.41,South,186,4.0,7.0,81,0.00,,,0.00,0,WeatherCatV1.23B16,2013-11-29 13:26:00,
2013-11-29 07:27:00,19.9,15.3,30.41,South,186,3.0,7.0,82,0.00,,,0.00,0,WeatherCatV1.23B16,2013-11-29 13:27:00,
2013-11-29 07:28:00,19.8,14.9,30.41,South,186,2.0,7.0,81,0.00,,,0.00,0,WeatherCatV1.23B16,2013-11-29 13:28:00,
2013-11-29 07:29:00,19.7,15.1,30.41,South,186,1.0,5.0,82,0.00,,,0.00,0,WeatherCatV1.23B16,2013-11-29 13:29:00,
2013-11-29 07:30:00,19.7,14.8,30.41,South,183,3.0,6.0,81,0.00,,,0.00,0,WeatherCatV1.23B16,2013-11-29 13:30:00,
2013-11-29 07:32:00,19.7,14.8,30.41,South,183,4.0,7.0,81,0.00,,,0.00,0,WeatherCatV1.23B16,2013-11-29 13:32:00,
2013-11-29 07:33:00,19.7,15.1,30.41,South,183,2.0,7.0,82,0.00,,,0.00,5,WeatherCatV1.23B16,2013-11-29 13:33:00,
2013-11-29 07:34:00,19.8,15.2,30.41,South,184,3.0,6.0,82,0.00,,,0.00,5,WeatherCatV1.23B16,2013-11-29 13:34:00,
2013-11-29 07:35:00,19.9,15.3,30.41,South,183,4.0,6.0,82,0.00,,,0.00,5,WeatherCatV1.23B16,2013-11-29 13:35:00,
2013-11-29 07:37:00,19.8,15.5,30.41,South,180,1.0,7.0,83,0.00,,,0.00,5,WeatherCatV1.23B16,2013-11-29 13:37:00,
2013-11-29 07:38:00,19.7,15.1,30.41,South,176,6.0,6.0,82,0.00,,,0.00,7,WeatherCatV1.23B16,2013-11-29 13:38:00,
2013-11-29 07:39:00,19.7,15.1,30.41,South,176,3.0,6.0,82,0.00,,,0.00,7,WeatherCatV1.23B16,2013-11-29 13:39:00,
2013-11-29 07:40:00,19.7,15.1,30.41,South,175,3.0,6.0,82,0.00,,,0.00,7,WeatherCatV1.23B16,2013-11-29 13:40:00,
2013-11-29 07:42:00,19.7,15.1,30.40,South,175,2.0,6.0,82,0.00,,,0.00,9,WeatherCatV1.23B16,2013-11-29 13:42:00,
2013-11-29 07:43:00,19.7,15.4,30.40,South,175,4.0,4.0,83,0.00,,,0.00,9,WeatherCatV1.23B16,2013-11-29 13:43:00,
2013-11-29 07:44:00,19.7,15.4,30.41,South,175,2.0,4.0,83,0.00,,,0.00,9,WeatherCatV1.23B16,2013-11-29 13:44:00,
2013-11-29 07:46:00,19.7,15.4,30.40,South,175,3.0,5.0,83,0.00,,,0.00,11,WeatherCatV1.23B16,2013-11-29 13:46:00,
2013-11-29 07:47:00,19.7,15.4,30.40,South,175,0.0,5.0,83,0.00,,,0.00,11,WeatherCatV1.23B16,2013-11-29 13:47:00,
2013-11-29 07:49:00,19.7,15.4,30.40,South,175,2.0,7.0,83,0.00,,,0.00,11,WeatherCatV1.23B16,2013-11-29 13:49:00,
2013-11-29 07:51:00,19.5,15.2,30.40,South,174,3.0,7.0,83,0.00,,,0.00,12,WeatherCatV1.23B16,2013-11-29 13:51:00,
2013-11-29 07:52:00,19.4,15.1,30.40,South,173,3.0,7.0,83,0.00,,,0.00,12,WeatherCatV1.23B16,2013-11-29 13:52:00,
2013-11-29 07:53:00,19.4,15.1,30.40,South,174,2.0,7.0,83,0.00,,,0.00,12,WeatherCatV1.23B16,2013-11-29 13:53:00,
2013-11-29 07:54:00,19.4,15.1,30.40,South,174,4.0,7.0,83,0.00,,,0.00,12,WeatherCatV1.23B16,2013-11-29 13:54:00,
2013-11-29 07:56:00,19.4,17.2,30.40,South,174,5.0,5.0,91,0.00,,,0.00,16,WeatherCatV1.23B16,2013-11-29 13:56:00,
2013-11-29 07:57:00,19.4,15.1,30.40,South,180,6.0,10.0,83,0.00,,,0.00,18,WeatherCatV1.23B16,2013-11-29 13:57:00,
2013-11-29 07:58:00,19.3,15.0,30.40,South,180,3.0,10.0,83,0.00,,,0.00,18,WeatherCatV1.23B16,2013-11-29 13:58:00,
2013-11-29 07:59:00,19.3,14.7,30.40,South,181,4.0,7.0,82,0.00,,,0.00,19,WeatherCatV1.23B16,2013-11-29 13:59:00,
2013-11-29 08:02:00,19.3,14.7,30.40,South,181,1.0,6.0,82,0.00,,,0.00,26,WeatherCatV1.23B16,2013-11-29 14:02:00,
2013-11-29 08:03:00,19.3,14.7,30.40,South,182,2.0,7.0,82,0.00,,,0.00,28,WeatherCatV1.23B16,2013-11-29 14:03:00,
2013-11-29 08:04:00,19.4,14.8,30.40,South,181,0.0,10.0,82,0.00,,,0.00,33,WeatherCatV1.23B16,2013-11-29 14:04:00,
2013-11-29 08:05:00,19.4,17.0,30.40,South,180,4.0,6.0,90,0.00,,,0.00,35,WeatherCatV1.23B16,2013-11-29 14:05:00,
2013-11-29 08:07:00,19.5,15.2,30.40,South,180,2.0,6.0,83,0.00,,,0.00,39,WeatherCatV1.23B16,2013-11-29 14:07:00,
2013-11-29 08:08:00,19.6,15.0,30.40,South,176,5.0,7.0,82,0.00,,,0.00,40,WeatherCatV1.23B16,2013-11-29 14:08:00,
2013-11-29 08:09:00,19.6,15.0,30.40,South,175,5.0,7.0,82,0.00,,,0.00,42,WeatherCatV1.23B16,2013-11-29 14:09:00,
2013-11-29 08:10:00,19.7,15.1,30.40,South,190,4.0,12.0,82,0.00,,,0.00,42,WeatherCatV1.23B16,2013-11-29 14:10:00,
2013-11-29 08:12:00,19.7,15.1,30.40,South,188,5.0,5.0,82,0.00,,,0.00,46,WeatherCatV1.23B16,2013-11-29 14:12:00,
2013-11-29 08:13:00,19.7,15.1,30.40,South,188,2.0,6.0,82,0.00,,,0.00,46,WeatherCatV1.23B16,2013-11-29 14:13:00,
2013-11-29 08:14:00,19.7,15.1,30.40,South,187,4.0,6.0,82,0.00,,,0.00,46,WeatherCatV1.23B16,2013-11-29 14:14:00,
2013-11-29 08:16:00,19.9,15.3,30.40,South,172,4.0,9.0,82,0.00,,,0.00,49,WeatherCatV1.23B16,2013-11-29 14:16:00,
2013-11-29 08:17:00,20.0,15.4,30.40,South,169,5.0,9.0,82,0.00,,,0.00,53,WeatherCatV1.23B16,2013-11-29 14:17:00,
2013-11-29 08:18:00,20.0,15.4,30.40,South,170,5.0,6.0,82,0.00,,,0.00,54,WeatherCatV1.23B16,2013-11-29 14:18:00,
2013-11-29 08:19:00,20.1,15.5,30.40,South,175,7.0,7.0,82,0.00,,,0.00,56,WeatherCatV1.23B16,2013-11-29 14:19:00,
2013-11-29 08:20:00,20.2,15.6,30.40,South,174,4.0,7.0,82,0.00,,,0.00,56,WeatherCatV1.23B16,2013-11-29 14:20:00,
2013-11-29 08:21:00,20.2,15.6,30.40,SSE,162,6.0,10.0,82,0.00,,,0.00,62,WeatherCatV1.23B16,2013-11-29 14:21:00,
2013-11-29 08:22:00,20.3,15.7,30.40,SSE,163,1.0,10.0,82,0.00,,,0.00,62,WeatherCatV1.23B16,2013-11-29 14:22:00,
2013-11-29 08:23:00,20.4,15.8,30.40,SSE,165,3.0,7.0,82,0.00,,,0.00,65,WeatherCatV1.23B16,2013-11-29 14:23:00,
2013-11-29 08:24:00,20.5,15.9,30.39,SSE,165,3.0,6.0,82,0.00,,,0.00,69,WeatherCatV1.23B16,2013-11-29 14:24:00,
2013-11-29 08:25:00,20.6,16.0,30.40,South,169,7.0,8.0,82,0.00,,,0.00,69,WeatherCatV1.23B16,2013-11-29 14:25:00,
2013-11-29 08:26:00,20.7,16.1,30.40,SSE,164,5.0,11.0,82,0.00,,,0.00,76,WeatherCatV1.23B16,2013-11-29 14:26:00,
2013-11-29 08:27:00,20.7,16.1,30.40,South,173,2.0,11.0,82,0.00,,,0.00,76,WeatherCatV1.23B16,2013-11-29 14:27:00,
2013-11-29 08:28:00,20.8,15.9,30.40,SSE,167,2.0,6.0,81,0.00,,,0.00,79,WeatherCatV1.23B16,2013-11-29 14:28:00,
2013-11-29 08:29:00,20.9,16.0,30.40,South,181,8.0,10.0,81,0.00,,,0.00,81,WeatherCatV1.23B16,2013-11-29 14:29:00,
2013-11-29 08:30:00,20.9,16.0,30.40,South,180,4.0,10.0,81,0.00,,,0.00,81,WeatherCatV1.23B16,2013-11-29 14:30:00,
2013-11-29 08:31:00,21.0,16.1,30.40,South,185,3.0,9.0,81,0.00,,,0.00,86,WeatherCatV1.23B16,2013-11-29 14:31:00,
2013-11-29 08:33:00,21.2,16.3,30.40,South,182,5.0,5.0,81,0.00,,,0.00,91,WeatherCatV1.23B16,2013-11-29 14:33:00,
2013-11-29 08:34:00,21.2,16.3,30.40,SSE,166,4.0,7.0,81,0.00,,,0.00,91,WeatherCatV1.23B16,2013-11-29 14:34:00,
2013-11-29 08:35:00,21.3,16.4,30.40,South,180,2.0,8.0,81,0.00,,,0.00,97,WeatherCatV1.23B16,2013-11-29 14:35:00,
2013-11-29 08:36:00,21.5,16.6,30.40,South,180,3.0,5.0,81,0.00,,,0.00,98,WeatherCatV1.23B16,2013-11-29 14:36:00,
2013-11-29 08:38:00,21.6,16.4,30.40,South,179,2.0,6.0,80,0.00,,,0.00,104,WeatherCatV1.23B16,2013-11-29 14:38:00,
2013-11-29 08:39:00,21.8,16.6,30.40,South,169,5.0,7.0,80,0.00,,,0.00,107,WeatherCatV1.23B16,2013-11-29 14:39:00,
2013-11-29 08:40:00,21.8,16.6,30.40,SSE,168,4.0,7.0,80,0.00,,,0.00,111,WeatherCatV1.23B16,2013-11-29 14:40:00,
2013-11-29 08:41:00,22.0,16.8,30.39,SSW,192,8.0,8.0,80,0.00,,,0.00,116,WeatherCatV1.23B16,2013-11-29 14:41:00,
2013-11-29 08:43:00,22.1,16.9,30.40,SSE,153,5.0,13.0,80,0.00,,,0.00,118,WeatherCatV1.23B16,2013-11-29 14:43:00,
2013-11-29 08:44:00,22.2,17.0,30.40,South,169,4.0,7.0,80,0.00,,,0.00,123,WeatherCatV1.23B16,2013-11-29 14:44:00,
2013-11-29 08:45:00,22.3,17.1,30.40,South,169,5.0,7.0,80,0.00,,,0.00,123,WeatherCatV1.23B16,2013-11-29 14:45:00,
2013-11-29 08:46:00,22.6,17.4,30.40,South,176,4.0,11.0,80,0.00,,,0.00,130,WeatherCatV1.23B16,2013-11-29 14:46:00,
2013-11-29 08:49:00,22.9,17.4,30.39,South,179,3.0,11.0,79,0.00,,,0.00,137,WeatherCatV1.23B16,2013-11-29 14:49:00,
2013-11-29 08:50:00,23.0,17.5,30.39,South,178,4.0,11.0,79,0.00,,,0.00,141,WeatherCatV1.23B16,2013-11-29 14:50:00,
2013-11-29 08:51:00,23.2,17.7,30.39,SSE,148,5.0,10.0,79,0.00,,,0.00,146,WeatherCatV1.23B16,2013-11-29 14:51:00,
2013-11-29 08:52:00,23.2,17.7,30.39,South,171,8.0,10.0,79,0.00,,,0.00,146,WeatherCatV1.23B16,2013-11-29 14:52:00,
2013-11-29 08:55:00,23.4,17.6,30.39,South,186,5.0,5.0,78,0.00,,,0.00,155,WeatherCatV1.23B16,2013-11-29 14:55:00,
2013-11-29 08:56:00,23.5,17.7,30.39,SSE,161,1.0,6.0,78,0.00,,,0.00,156,WeatherCatV1.23B16,2013-11-29 14:56:00,
2013-11-29 08:57:00,23.7,17.9,30.39,SSE,168,4.0,7.0,78,0.00,,,0.00,160,WeatherCatV1.23B16,2013-11-29 14:57:00,
2013-11-29 09:00:00,24.0,18.2,30.39,SSW,211,13.0,16.0,78,0.00,,,0.00,169,WeatherCatV1.23B16,2013-11-29 15:00:00,
2013-11-29 09:01:00,24.0,17.9,30.39,SSE,157,7.0,16.0,77,0.00,,,0.00,171,WeatherCatV1.23B16,2013-11-29 15:01:00,
2013-11-29 09:02:00,24.1,18.0,30.39,SSE,155,3.0,15.0,77,0.00,,,0.00,176,WeatherCatV1.23B16,2013-11-29 15:02:00,
2013-11-29 09:05:00,24.3,18.1,30.38,SSE,167,5.0,12.0,77,0.00,,,0.00,185,WeatherCatV1.23B16,2013-11-29 15:05:00,
2013-11-29 09:06:00,24.4,18.2,30.38,SE,137,14.0,14.0,77,0.00,,,0.00,188,WeatherCatV1.23B16,2013-11-29 15:06:00,
2013-11-29 09:07:00,24.5,18.3,30.38,SSE,148,2.0,14.0,77,0.00,,,0.00,192,WeatherCatV1.23B16,2013-11-29 15:07:00,
2013-11-29 09:10:00,24.8,18.3,30.38,South,188,3.0,13.0,76,0.00,,,0.00,199,WeatherCatV1.23B16,2013-11-29 15:10:00,
2013-11-29 09:11:00,24.8,18.3,30.38,SSW,206,12.0,18.0,76,0.00,,,0.00,202,WeatherCatV1.23B16,2013-11-29 15:11:00,
2013-11-29 09:12:00,24.8,18.3,30.38,South,187,5.0,18.0,76,0.00,,,0.00,207,WeatherCatV1.23B16,2013-11-29 15:12:00,
2013-11-29 09:13:00,24.9,18.4,30.38,SSE,165,2.0,9.0,76,0.00,,,0.00,211,WeatherCatV1.23B16,2013-11-29 15:13:00,
2013-11-29 09:16:00,25.1,18.6,30.38,SSE,168,4.0,10.0,76,0.00,,,0.00,218,WeatherCatV1.23B16,2013-11-29 15:16:00,
2013-11-29 09:17:00,25.2,18.7,30.38,South,169,2.0,8.0,76,0.00,,,0.00,218,WeatherCatV1.23B16,2013-11-29 15:17:00,
2013-11-29 09:18:00,25.4,18.9,30.38,SW,222,10.0,11.0,76,0.00,,,0.00,223,WeatherCatV1.23B16,2013-11-29 15:18:00,
2013-11-29 09:21:00,25.8,19.3,30.38,SSE,150,5.0,9.0,76,0.00,,,0.00,232,WeatherCatV1.23B16,2013-11-29 15:21:00,
2013-11-29 09:22:00,25.9,19.4,30.38,SSE,150,5.0,9.0,76,0.00,,,0.00,236,WeatherCatV1.23B16,2013-11-29 15:22:00,
2013-11-29 09:23:00,26.1,19.6,30.37,SSW,200,7.0,12.0,76,0.00,,,0.00,237,WeatherCatV1.23B16,2013-11-29 15:23:00,
2013-11-29 09:27:00,26.2,19.4,30.38,SSW,210,12.0,19.0,75,0.00,,,0.00,248,WeatherCatV1.23B16,2013-11-29 15:27:00,
2013-11-29 09:28:00,26.2,19.4,30.37,SSW,200,15.0,19.0,75,0.00,,,0.00,250,WeatherCatV1.23B16,2013-11-29 15:28:00,
2013-11-29 09:32:00,26.4,19.3,30.38,South,188,4.0,15.0,74,0.00,,,0.00,258,WeatherCatV1.23B16,2013-11-29 15:32:00,
2013-11-29 09:33:00,26.5,19.4,30.38,South,187,10.0,10.0,74,0.00,,,0.00,262,WeatherCatV1.23B16,2013-11-29 15:33:00,
2013-11-29 09:34:00,26.7,19.5,30.37,South,186,2.0,10.0,74,0.00,,,0.00,265,WeatherCatV1.23B16,2013-11-29 15:34:00,
2013-11-29 09:37:00,27.1,19.9,30.37,SE,146,3.0,15.0,74,0.00,,,0.00,272,WeatherCatV1.23B16,2013-11-29 15:37:00,
2013-11-29 09:38:00,27.3,20.1,30.37,SSE,148,3.0,6.0,74,0.00,,,0.00,274,WeatherCatV1.23B16,2013-11-29 15:38:00,
2013-11-29 09:39:00,27.5,20.3,30.37,South,171,3.0,9.0,74,0.00,,,0.00,278,WeatherCatV1.23B16,2013-11-29 15:39:00,
2013-11-29 09:42:00,28.0,20.8,30.37,SSE,165,3.0,11.0,74,0.00,,,0.00,285,WeatherCatV1.23B16,2013-11-29 15:42:00,
2013-11-29 09:43:00,28.0,20.5,30.37,South,186,9.0,11.0,73,0.00,,,0.00,287,WeatherCatV1.23B16,2013-11-29 15:43:00,
2013-11-29 09:44:00,28.0,20.5,30.37,SSE,157,3.0,12.0,73,0.00,,,0.00,288,WeatherCatV1.23B16,2013-11-29 15:44:00,
2013-11-29 09:47:00,28.2,20.7,30.37,SSE,147,4.0,17.0,73,0.00,,,0.00,297,WeatherCatV1.23B16,2013-11-29 15:47:00,
2013-11-29 09:48:00,28.3,20.8,30.37,SE,141,9.0,13.0,73,0.00,,,0.00,299,WeatherCatV1.23B16,2013-11-29 15:48:00,
2013-11-29 09:49:00,28.3,20.8,30.37,SSW,200,10.0,13.0,73,0.00,,,0.00,302,WeatherCatV1.23B16,2013-11-29 15:49:00,
2013-11-29 09:52:00,28.8,20.9,30.37,SSE,167,5.0,10.0,72,0.00,,,0.00,308,WeatherCatV1.23B16,2013-11-29 15:52:00,
2013-11-29 09:53:00,28.9,21.4,30.37,SE,128,4.0,14.0,73,0.00,,,0.00,309,WeatherCatV1.23B16,2013-11-29 15:53:00,
2013-11-29 09:54:00,29.0,21.1,30.37,SE,129,6.0,14.0,72,0.00,,,0.00,311,WeatherCatV1.23B16,2013-11-29 15:54:00,
2013-11-29 09:55:00,29.1,21.2,30.37,SE,137,2.0,10.0,72,0.00,,,0.00,315,WeatherCatV1.23B16,2013-11-29 15:55:00,
2013-11-29 09:57:00,29.3,22.7,30.37,SSE,150,2.0,16.0,76,0.00,,,0.00,318,WeatherCatV1.23B16,2013-11-29 15:57:00,
2013-11-29 09:58:00,29.3,22.7,30.37,SSE,164,7.0,16.0,76,0.00,,,0.00,320,WeatherCatV1.23B16,2013-11-29 15:58:00,
2013-11-29 09:59:00,29.3,22.7,30.37,SSW,208,12.0,12.0,76,0.00,,,0.00,322,WeatherCatV1.23B16,2013-11-29 15:59:00,
2013-11-29 10:00:00,29.5,21.3,30.37,SSE,149,9.0,12.0,71,0.00,,,0.00,325,WeatherCatV1.23B16,2013-11-29 16:00:00,
2013-11-29 10:02:00,29.5,21.3,30.37,ESE,119,4.0,13.0,71,0.00,,,0.00,329,WeatherCatV1.23B16,2013-11-29 16:02:00,
2013-11-29 10:03:00,29.5,21.3,30.37,SSE,149,4.0,13.0,71,0.00,,,0.00,332,WeatherCatV1.23B16,2013-11-29 16:03:00,
2013-11-29 10:04:00,29.6,21.4,30.37,SSE,159,4.0,12.0,71,0.00,,,0.00,332,WeatherCatV1.23B16,2013-11-29 16:04:00,
2013-11-29 10:06:00,29.7,21.5,30.37,SSW,196,2.0,9.0,71,0.00,,,0.00,338,WeatherCatV1.23B16,2013-11-29 16:06:00,
2013-11-29 10:07:00,29.7,21.5,30.37,South,186,5.0,12.0,71,0.00,,,0.00,339,WeatherCatV1.23B16,2013-11-29 16:07:00,
2013-11-29 10:08:00,29.8,21.6,30.37,SSE,155,6.0,12.0,71,0.00,,,0.00,341,WeatherCatV1.23B16,2013-11-29 16:08:00,
2013-11-29 10:09:00,29.9,21.7,30.37,SSE,150,3.0,8.0,71,0.00,,,0.00,343,WeatherCatV1.23B16,2013-11-29 16:09:00,
2013-11-29 10:10:00,30.1,21.9,30.37,SSE,150,3.0,6.0,71,0.00,,,0.00,345,WeatherCatV1.23B16,2013-11-29 16:10:00,
2013-11-29 10:12:00,30.4,22.1,30.37,SSW,195,9.0,13.0,71,0.00,,,0.00,348,WeatherCatV1.23B16,2013-11-29 16:12:00,
2013-11-29 10:13:00,30.4,22.1,30.37,South,179,8.0,13.0,71,0.00,,,0.00,352,WeatherCatV1.23B16,2013-11-29 16:13:00,
2013-11-29 10:14:00,30.4,22.1,30.37,South,182,4.0,13.0,71,0.00,,,0.00,352,WeatherCatV1.23B16,2013-11-29 16:14:00,
2013-11-29 10:15:00,30.4,22.1,30.37,South,187,2.0,10.0,71,0.00,,,0.00,353,WeatherCatV1.23B16,2013-11-29 16:15:00,
2013-11-29 10:17:00,30.7,22.4,30.37,SSW,205,9.0,10.0,71,0.00,,,0.00,359,WeatherCatV1.23B16,2013-11-29 16:17:00,
2013-11-29 10:18:00,30.7,22.4,30.37,South,175,6.0,11.0,71,0.00,,,0.00,360,WeatherCatV1.23B16,2013-11-29 16:18:00,
2013-11-29 10:19:00,30.7,22.4,30.37,SSW,213,7.0,14.0,71,0.00,,,0.00,362,WeatherCatV1.23B16,2013-11-29 16:19:00,
2013-11-29 10:20:00,30.7,22.1,30.37,SSW,197,13.0,14.0,70,0.00,,,0.00,364,WeatherCatV1.23B16,2013-11-29 16:20:00,
2013-11-29 10:22:00,30.7,22.4,30.37,South,190,9.0,12.0,71,0.00,,,0.00,367,WeatherCatV1.23B16,2013-11-29 16:22:00,
2013-11-29 10:23:00,30.7,22.4,30.37,SSW,200,6.0,13.0,71,0.00,,,0.00,369,WeatherCatV1.23B16,2013-11-29 16:23:00,
2013-11-29 10:24:00,30.7,22.4,30.37,SSE,160,9.0,13.0,71,0.00,,,0.00,371,WeatherCatV1.23B16,2013-11-29 16:24:00,
2013-11-29 10:25:00,30.8,22.5,30.37,South,175,7.0,13.0,71,0.00,,,0.00,374,WeatherCatV1.23B16,2013-11-29 16:25:00,
2013-11-29 10:28:00,31.2,22.9,30.37,SW,226,7.0,10.0,71,0.00,,,0.00,378,WeatherCatV1.23B16,2013-11-29 16:28:00,
2013-11-29 10:29:00,31.4,23.1,30.37,South,180,3.0,10.0,71,0.00,,,0.00,381,WeatherCatV1.23B16,2013-11-29 16:29:00,
2013-11-29 10:30:00,31.6,23.3,30.37,South,182,4.0,6.0,71,0.00,,,0.00,383,WeatherCatV1.23B16,2013-11-29 16:30:00,
2013-11-29 10:31:00,31.7,23.4,30.36,South,182,7.0,7.0,71,0.00,,,0.00,383,WeatherCatV1.23B16,2013-11-29 16:31:00,
2013-11-29 10:33:00,32.0,23.3,30.36,South,189,10.0,11.0,70,0.00,,,0.00,387,WeatherCatV1.23B16,2013-11-29 16:33:00,
2013-11-29 10:34:00,32.1,23.4,30.36,SSE,167,4.0,11.0,70,0.00,,,0.00,390,WeatherCatV1.23B16,2013-11-29 16:34:00,
2013-11-29 10:35:00,32.2,23.5,30.36,SSW,201,7.0,8.0,70,0.00,,,0.00,392,WeatherCatV1.23B16,2013-11-29 16:35:00,
2013-11-29 10:36:00,32.2,23.5,30.36,SSW,199,3.0,8.0,70,0.00,,,0.00,394,WeatherCatV1.23B16,2013-11-29 16:36:00,
2013-11-29 10:38:00,32.2,23.5,30.36,South,179,3.0,15.0,70,0.00,,,0.00,399,WeatherCatV1.23B16,2013-11-29 16:38:00,
2013-11-29 10:39:00,32.3,23.6,30.36,South,179,6.0,14.0,70,0.00,,,0.00,399,WeatherCatV1.23B16,2013-11-29 16:39:00,
2013-11-29 10:40:00,32.4,23.4,30.36,South,175,3.0,12.0,69,0.00,,,0.00,399,WeatherCatV1.23B16,2013-11-29 16:40:00,
2013-11-29 10:41:00,32.4,23.4,30.36,SW,222,10.0,15.0,69,0.00,,,0.00,404,WeatherCatV1.23B16,2013-11-29 16:41:00,
2013-11-29 10:43:00,32.3,23.3,30.35,SSW,198,8.0,11.0,69,0.00,,,0.00,406,WeatherCatV1.23B16,2013-11-29 16:43:00,
2013-11-29 10:44:00,32.4,23.4,30.35,SW,225,11.0,11.0,69,0.00,,,0.00,408,WeatherCatV1.23B16,2013-11-29 16:44:00,
2013-11-29 10:45:00,32.4,23.4,30.36,SW,215,6.0,13.0,69,0.00,,,0.00,411,WeatherCatV1.23B16,2013-11-29 16:45:00,
2013-11-29 10:46:00,32.4,23.4,30.35,SSE,159,4.0,13.0,69,0.00,,,0.00,413,WeatherCatV1.23B16,2013-11-29 16:46:00,
2013-11-29 10:47:00,32.5,23.8,30.35,South,191,4.0,9.0,70,0.00,,,0.00,413,WeatherCatV1.23B16,2013-11-29 16:47:00,
2013-11-29 10:48:00,32.7,24.0,30.35,South,182,12.0,12.0,70,0.00,,,0.00,415,WeatherCatV1.23B16,2013-11-29 16:48:00,
2013-11-29 10:49:00,32.9,23.9,30.35,South,179,5.0,12.0,69,0.00,,,0.00,418,WeatherCatV1.23B16,2013-11-29 16:49:00,
2013-11-29 10:51:00,33.0,24.0,30.35,South,176,5.0,12.0,69,0.00,,,0.00,418,WeatherCatV1.23B16,2013-11-29 16:51:00,
2013-11-29 10:52:00,33.1,24.0,30.35,SSW,209,4.0,12.0,69,0.00,,,0.00,422,WeatherCatV1.23B16,2013-11-29 16:52:00,
2013-11-29 10:53:00,33.2,24.1,30.35,SSW,192,6.0,9.0,69,0.00,,,0.00,424,WeatherCatV1.23B16,2013-11-29 16:53:00,
2013-11-29 10:55:00,33.3,24.2,30.35,SW,224,10.0,14.0,69,0.00,,,0.00,427,WeatherCatV1.23B16,2013-11-29 16:55:00,
2013-11-29 10:56:00,33.4,24.0,30.35,SSW,207,7.0,14.0,68,0.00,,,0.00,429,WeatherCatV1.23B16,2013-11-29 16:56:00,
2013-11-29 10:57:00,33.4,24.3,30.35,SSW,210,6.0,8.0,69,0.00,,,0.00,431,WeatherCatV1.23B16,2013-11-29 16:57:00,
2013-11-29 10:58:00,33.4,24.3,30.35,SSW,206,4.0,9.0,69,0.00,,,0.00,434,WeatherCatV1.23B16,2013-11-29 16:58:00,
2013-11-29 11:00:00,33.7,24.6,30.35,SSW,198,8.0,10.0,69,0.00,,,0.00,434,WeatherCatV1.23B16,2013-11-29 17:00:00,
2013-11-29 11:01:00,33.8,24.4,30.35,SW,216,3.0,13.0,68,0.00,,,0.00,438,WeatherCatV1.23B16,2013-11-29 17:01:00,
2013-11-29 11:02:00,34.1,24.7,30.35,SSW,213,9.0,13.0,68,0.00,,,0.00,441,WeatherCatV1.23B16,2013-11-29 17:02:00,
2013-11-29 11:03:00,34.2,24.8,30.35,SSW,203,6.0,9.0,68,0.00,,,0.00,443,WeatherCatV1.23B16,2013-11-29 17:03:00,
2013-11-29 11:05:00,34.4,25.0,30.35,South,183,4.0,11.0,68,0.00,,,0.00,446,WeatherCatV1.23B16,2013-11-29 17:05:00,
2013-11-29 11:06:00,34.4,25.0,30.35,SSW,204,5.0,9.0,68,0.00,,,0.00,446,WeatherCatV1.23B16,2013-11-29 17:06:00,
2013-11-29 11:07:00,34.4,25.0,30.35,SSW,203,3.0,6.0,68,0.00,,,0.00,450,WeatherCatV1.23B16,2013-11-29 17:07:00,
2013-11-29 11:08:00,34.5,25.0,30.35,SSW,203,3.0,5.0,68,0.00,,,0.00,452,WeatherCatV1.23B16,2013-11-29 17:08:00,
2013-11-29 11:10:00,35.0,25.2,30.35,SW,222,4.0,10.0,67,0.00,,,0.00,457,WeatherCatV1.23B16,2013-11-29 17:10:00,
2013-11-29 11:11:00,35.1,25.3,30.34,SW,222,6.0,10.0,67,0.00,,,0.00,459,WeatherCatV1.23B16,2013-11-29 17:11:00,
2013-11-29 11:13:00,35.3,25.5,30.34,South,173,6.0,7.0,67,0.00,,,0.00,464,WeatherCatV1.23B16,2013-11-29 17:13:00,
2013-11-29 11:15:00,35.7,26.2,30.34,South,178,9.0,9.0,68,0.00,,,0.00,469,WeatherCatV1.23B16,2013-11-29 17:15:00,
2013-11-29 11:16:00,35.9,26.0,30.34,SW,217,9.0,11.0,67,0.00,,,0.00,475,WeatherCatV1.23B16,2013-11-29 17:16:00,
2013-11-29 11:18:00,35.9,25.7,30.34,SSW,205,5.0,11.0,66,0.00,,,0.00,476,WeatherCatV1.23B16,2013-11-29 17:18:00,
2013-11-29 11:19:00,36.0,25.8,30.34,SSW,210,2.0,6.0,66,0.00,,,0.00,482,WeatherCatV1.23B16,2013-11-29 17:19:00,
2013-11-29 11:20:00,36.3,26.4,30.34,SSW,213,4.0,4.0,67,0.00,,,0.00,483,WeatherCatV1.23B16,2013-11-29 17:20:00,
2013-11-29 11:22:00,36.4,26.1,30.33,SSW,213,6.0,9.0,66,0.00,,,0.00,390,WeatherCatV1.23B16,2013-11-29 17:22:00,
2013-11-29 11:23:00,36.5,26.2,30.33,SSW,210,3.0,9.0,66,0.00,,,0.00,438,WeatherCatV1.23B16,2013-11-29 17:23:00,
2013-11-29 11:24:00,36.8,26.5,30.33,SSW,209,2.0,5.0,66,0.00,,,0.00,408,WeatherCatV1.23B16,2013-11-29 17:24:00,
2013-11-29 11:25:00,37.0,26.7,30.33,SSW,208,0.0,4.0,66,0.00,,,0.00,253,WeatherCatV1.23B16,2013-11-29 17:25:00,
2013-11-29 11:28:00,37.1,26.1,30.33,South,188,4.0,10.0,64,0.00,,,0.00,255,WeatherCatV1.23B16,2013-11-29 17:28:00,
2013-11-29 11:29:00,37.0,26.0,30.32,SSW,213,5.0,7.0,64,0.00,,,0.00,301,WeatherCatV1.23B16,2013-11-29 17:29:00,
2013-11-29 11:30:00,36.8,26.1,30.32,SSW,213,4.0,9.0,65,0.00,,,0.00,295,WeatherCatV1.23B16,2013-11-29 17:30:00,
2013-11-29 11:33:00,36.9,26.2,30.32,SSW,195,8.0,8.0,65,0.00,,,0.00,462,WeatherCatV1.23B16,2013-11-29 17:33:00,
2013-11-29 11:34:00,37.0,26.4,30.32,SSW,199,8.0,11.0,65,0.00,,,0.00,462,WeatherCatV1.23B16,2013-11-29 17:34:00,
2013-11-29 11:35:00,36.8,25.8,30.32,SSW,199,10.0,13.0,64,0.00,,,0.00,459,WeatherCatV1.23B16,2013-11-29 17:35:00,
2013-11-29 11:38:00,36.4,25.8,30.32,South,182,10.0,10.0,65,0.00,,,0.00,197,WeatherCatV1.23B16,2013-11-29 17:38:00,
2013-11-29 11:39:00,36.4,25.8,30.32,SSW,211,9.0,10.0,65,0.00,,,0.00,197,WeatherCatV1.23B16,2013-11-29 17:39:00,
2013-11-29 11:40:00,36.3,25.7,30.32,South,184,4.0,7.0,65,0.00,,,0.00,483,WeatherCatV1.23B16,2013-11-29 17:40:00,
2013-11-29 11:41:00,36.3,25.7,30.32,South,184,4.0,7.0,65,0.00,,,0.00,483,WeatherCatV1.23B16,2013-11-29 17:41:00,
2013-11-29 11:43:00,36.7,26.4,30.32,SSW,195,7.0,10.0,66,0.00,,,0.00,492,WeatherCatV1.23B16,2013-11-29 17:43:00,
2013-11-29 11:44:00,36.7,26.1,30.32,SSW,199,2.0,10.0,65,0.00,,,0.00,492,WeatherCatV1.23B16,2013-11-29 17:44:00,
2013-11-29 11:45:00,36.8,26.1,30.31,SSW,200,5.0,10.0,65,0.00,,,0.00,492,WeatherCatV1.23B16,2013-11-29 17:45:00,
2013-11-29 11:46:00,36.9,26.2,30.31,SSW,195,6.0,7.0,65,0.00,,,0.00,492,WeatherCatV1.23B16,2013-11-29 17:46:00,
2013-11-29 11:48:00,37.3,26.6,30.31,South,169,8.0,11.0,65,0.00,,,0.00,499,WeatherCatV1.23B16,2013-11-29 17:48:00,
2013-11-29 11:49:00,37.4,26.7,30.31,South,169,3.0,11.0,65,0.00,,,0.00,494,WeatherCatV1.23B16,2013-11-29 17:49:00,
2013-11-29 11:50:00,37.5,26.8,30.31,SSW,211,9.0,11.0,65,0.00,,,0.00,490,WeatherCatV1.23B16,2013-11-29 17:50:00,
2013-11-29 11:51:00,37.6,26.9,30.31,SSW,202,6.0,9.0,65,0.00,,,0.00,487,WeatherCatV1.23B16,2013-11-29 17:51:00,
2013-11-29 11:52:00,37.8,26.7,30.31,SSW,206,10.0,10.0,64,0.00,,,0.00,489,WeatherCatV1.23B16,2013-11-29 17:52:00,
2013-11-29 11:53:00,38.0,26.9,30.31,SSW,209,4.0,10.0,64,0.00,,,0.00,468,WeatherCatV1.23B16,2013-11-29 17:53:00,
2013-11-29 11:54:00,38.2,27.1,30.30,South,190,7.0,7.0,64,0.00,,,0.00,468,WeatherCatV1.23B16,2013-11-29 17:54:00,
2013-11-29 11:55:00,38.3,27.2,30.30,South,190,3.0,7.0,64,0.00,,,0.00,487,WeatherCatV1.23B16,2013-11-29 17:55:00,
2013-11-29 11:56:00,38.6,27.5,30.30,SSW,192,5.0,7.0,64,0.00,,,0.00,490,WeatherCatV1.23B16,2013-11-29 17:56:00,
2013-11-29 11:57:00,38.8,27.3,30.30,SSW,198,7.0,13.0,63,0.00,,,0.00,490,WeatherCatV1.23B16,2013-11-29 17:57:00,
2013-11-29 11:59:00,38.9,27.4,30.30,SSE,158,5.0,15.0,63,0.00,,,0.00,489,WeatherCatV1.23B16,2013-11-29 17:59:00,
2013-11-29 12:00:00,39.1,27.2,30.30,SSW,196,6.0,11.0,62,0.00,,,0.00,489,WeatherCatV1.23B16,2013-11-29 18:00:00,
2013-11-29 12:01:00,39.3,27.4,30.30,SSW,207,11.0,13.0,62,0.00,,,0.00,489,WeatherCatV1.23B16,2013-11-29 18:01:00,
2013-11-29 12:02:00,39.3,27.4,30.30,South,180,2.0,13.0,62,0.00,,,0.00,490,WeatherCatV1.23B16,2013-11-29 18:02:00,
2013-11-29 12:04:00,39.5,27.6,30.30,SSW,211,9.0,14.0,62,0.00,,,0.00,490,WeatherCatV1.23B16,2013-11-29 18:04:00,
2013-11-29 12:05:00,39.5,27.2,30.30,SSW,209,12.0,14.0,61,0.00,,,0.00,482,WeatherCatV1.23B16,2013-11-29 18:05:00,
2013-11-29 12:06:00,39.2,26.9,30.30,SW,219,7.0,14.0,61,0.00,,,0.00,490,WeatherCatV1.23B16,2013-11-29 18:06:00,
2013-11-29 12:07:00,39.1,26.8,30.30,SW,223,6.0,14.0,61,0.00,,,0.00,489,WeatherCatV1.23B16,2013-11-29 18:07:00,
2013-11-29 12:09:00,39.0,26.7,30.30,SSW,208,6.0,14.0,61,0.00,,,0.00,490,WeatherCatV1.23B16,2013-11-29 18:09:00,
2013-11-29 12:10:00,39.0,26.7,30.29,SW,224,5.0,11.0,61,0.00,,,0.00,489,WeatherCatV1.23B16,2013-11-29 18:10:00,
2013-11-29 12:11:00,39.1,27.2,30.30,SW,222,8.0,9.0,62,0.00,,,0.00,489,WeatherCatV1.23B16,2013-11-29 18:11:00,
2013-11-29 12:13:00,39.1,26.8,30.29,SW,225,4.0,14.0,61,0.00,,,0.00,489,WeatherCatV1.23B16,2013-11-29 18:13:00,
2013-11-29 12:14:00,39.2,27.3,30.29,SW,224,3.0,14.0,62,0.00,,,0.00,489,WeatherCatV1.23B16,2013-11-29 18:14:00,
2013-11-29 12:15:00,39.3,27.0,30.29,SSW,198,3.0,11.0,61,0.00,,,0.00,490,WeatherCatV1.23B16,2013-11-29 18:15:00,
2013-11-29 12:16:00,39.4,27.1,30.29,SSW,209,11.0,11.0,61,0.00,,,0.00,492,WeatherCatV1.23B16,2013-11-29 18:16:00,
2013-11-29 12:18:00,39.5,27.2,30.29,SSW,209,7.0,12.0,61,0.00,,,0.00,489,WeatherCatV1.23B16,2013-11-29 18:18:00,
2013-11-29 12:19:00,39.5,27.2,30.29,SW,223,2.0,7.0,61,0.00,,,0.00,489,WeatherCatV1.23B16,2013-11-29 18:19:00,
2013-11-29 12:20:00,39.7,27.4,30.29,SSW,199,6.0,9.0,61,0.00,,,0.00,487,WeatherCatV1.23B16,2013-11-29 18:20:00,
2013-11-29 12:21:00,39.7,27.0,30.29,South,191,4.0,10.0,60,0.00,,,0.00,487,WeatherCatV1.23B16,2013-11-29 18:21:00,
2013-11-29 12:22:00,39.7,27.0,30.29,South,190,4.0,10.0,60,0.00,,,0.00,487,WeatherCatV1.23B16,2013-11-29 18:22:00,
2013-11-29 12:23:00,39.7,27.0,30.28,South,173,6.0,15.0,60,0.00,,,0.00,487,WeatherCatV1.23B16,2013-11-29 18:23:00,
2013-11-29 12:24:00,39.7,27.0,30.29,SSW,213,9.0,15.0,60,0.00,,,0.00,487,WeatherCatV1.23B16,2013-11-29 18:24:00,
2013-11-29 12:25:00,39.6,26.9,30.28,SSE,157,5.0,11.0,60,0.00,,,0.00,487,WeatherCatV1.23B16,2013-11-29 18:25:00,
2013-11-29 12:26:00,39.7,27.0,30.28,SSW,194,4.0,12.0,60,0.00,,,0.00,487,WeatherCatV1.23B16,2013-11-29 18:26:00,
2013-11-29 12:27:00,39.7,27.0,30.28,SSW,205,13.0,13.0,60,0.00,,,0.00,485,WeatherCatV1.23B16,2013-11-29 18:27:00,
2013-11-29 12:28:00,39.8,27.5,30.28,SSW,194,3.0,14.0,61,0.00,,,0.00,485,WeatherCatV1.23B16,2013-11-29 18:28:00,
2013-11-29 12:29:00,40.0,27.6,30.28,SSW,194,5.0,14.0,61,0.00,,,0.00,485,WeatherCatV1.23B16,2013-11-29 18:29:00,
2013-11-29 12:30:00,40.2,27.8,30.28,SW,226,6.0,10.0,61,0.00,,,0.00,485,WeatherCatV1.23B16,2013-11-29 18:30:00,
2013-11-29 12:31:00,40.3,27.5,30.28,SSW,203,6.0,7.0,60,0.00,,,0.00,485,WeatherCatV1.23B16,2013-11-29 18:31:00,
2013-11-29 12:32:00,40.3,27.5,30.28,South,171,6.0,9.0,60,0.00,,,0.00,483,WeatherCatV1.23B16,2013-11-29 18:32:00,
2013-11-29 12:33:00,40.5,27.7,30.28,SSW,194,4.0,9.0,60,0.00,,,0.00,483,WeatherCatV1.23B16,2013-11-29 18:33:00,
2013-11-29 12:34:00,40.6,27.8,30.28,SE,134,3.0,9.0,60,0.00,,,0.00,483,WeatherCatV1.23B16,2013-11-29 18:34:00,
2013-11-29 12:35:00,40.8,28.0,30.28,SSE,163,3.0,9.0,60,0.00,,,0.00,483,WeatherCatV1.23B16,2013-11-29 18:35:00,
2013-11-29 12:36:00,40.9,28.1,30.28,SSE,168,3.0,7.0,60,0.00,,,0.00,483,WeatherCatV1.23B16,2013-11-29 18:36:00,
2013-11-29 12:37:00,41.0,29.0,30.28,South,178,10.0,12.0,62,0.00,,,0.00,485,WeatherCatV1.23B16,2013-11-29 18:37:00,
2013-11-29 12:38:00,41.0,27.8,30.28,SSW,201,7.0,12.0,59,0.00,,,0.00,483,WeatherCatV1.23B16,2013-11-29 18:38:00,
2013-11-29 12:39:00,40.8,27.6,30.28,SSW,197,11.0,12.0,59,0.00,,,0.00,483,WeatherCatV1.23B16,2013-11-29 18:39:00,
2013-11-29 12:41:00,40.7,27.5,30.28,SW,223,7.0,11.0,59,0.00,,,0.00,483,WeatherCatV1.23B16,2013-11-29 18:41:00,
2013-11-29 12:43:00,40.7,27.5,30.28,SSW,206,11.0,11.0,59,0.00,,,0.00,483,WeatherCatV1.23B16,2013-11-29 18:43:00,
2013-11-29 12:44:00,41.0,27.8,30.28,SW,214,9.0,11.0,59,0.00,,,0.00,482,WeatherCatV1.23B16,2013-11-29 18:44:00,
2013-11-29 12:46:00,41.1,27.9,30.28,SSE,165,8.0,12.0,59,0.00,,,0.00,482,WeatherCatV1.23B16,2013-11-29 18:46:00,
2013-11-29 12:47:00,41.1,27.9,30.28,South,184,10.0,12.0,59,0.00,,,0.00,482,WeatherCatV1.23B16,2013-11-29 18:47:00,
2013-11-29 12:48:00,41.3,28.1,30.28,SSW,200,6.0,12.0,59,0.00,,,0.00,480,WeatherCatV1.23B16,2013-11-29 18:48:00,
2013-11-29 12:49:00,41.4,28.2,30.28,South,180,6.0,11.0,59,0.00,,,0.00,480,WeatherCatV1.23B16,2013-11-29 18:49:00,
2013-11-29 12:51:00,41.8,28.5,30.27,SW,216,4.0,9.0,59,0.00,,,0.00,478,WeatherCatV1.23B16,2013-11-29 18:51:00,
2013-11-29 12:52:00,41.9,28.2,30.27,South,183,12.0,12.0,58,0.00,,,0.00,478,WeatherCatV1.23B16,2013-11-29 18:52:00,
2013-11-29 12:53:00,41.9,28.2,30.27,SSE,150,10.0,12.0,58,0.00,,,0.00,476,WeatherCatV1.23B16,2013-11-29 18:53:00,
2013-11-29 12:54:00,42.0,28.3,30.27,SE,146,4.0,12.0,58,0.00,,,0.00,476,WeatherCatV1.23B16,2013-11-29 18:54:00,
2013-11-29 12:55:00,42.1,28.4,30.27,South,171,6.0,12.0,58,0.00,,,0.00,476,WeatherCatV1.23B16,2013-11-29 18:55:00,
2013-11-29 12:56:00,42.1,28.4,30.27,SSW,200,10.0,12.0,58,0.00,,,0.00,476,WeatherCatV1.23B16,2013-11-29 18:56:00,
2013-11-29 12:57:00,42.3,28.6,30.26,SSW,195,4.0,10.0,58,0.00,,,0.00,475,WeatherCatV1.23B16,2013-11-29 18:57:00,
2013-11-29 12:58:00,42.4,28.7,30.26,SSW,198,0.0,6.0,58,0.00,,,0.00,475,WeatherCatV1.23B16,2013-11-29 18:58:00,
2013-11-29 12:59:00,42.7,29.0,30.26,SSW,198,3.0,6.0,58,0.00,,,0.00,475,WeatherCatV1.23B16,2013-11-29 18:59:00,
2013-11-29 13:00:00,42.9,29.1,30.26,South,178,4.0,7.0,58,0.00,,,0.00,475,WeatherCatV1.23B16,2013-11-29 19:00:00,
2013-11-29 13:01:00,43.1,28.9,30.26,South,184,3.0,9.0,57,0.00,,,0.00,471,WeatherCatV1.23B16,2013-11-29 19:01:00,
2013-11-29 13:03:00,43.1,28.5,30.26,SSW,200,11.0,11.0,56,0.00,,,0.00,466,WeatherCatV1.23B16,2013-11-29 19:03:00,
2013-11-29 13:04:00,43.0,28.4,30.26,SSW,196,4.0,11.0,56,0.00,,,0.00,469,WeatherCatV1.23B16,2013-11-29 19:04:00,
2013-11-29 13:05:00,43.0,28.4,30.25,SSW,196,5.0,9.0,56,0.00,,,0.00,469,WeatherCatV1.23B16,2013-11-29 19:05:00,
2013-11-29 13:06:00,43.1,28.5,30.26,SSW,199,7.0,7.0,56,0.00,,,0.00,469,WeatherCatV1.23B16,2013-11-29 19:06:00,
2013-11-29 13:07:00,43.1,28.9,30.25,SW,223,6.0,9.0,57,0.00,,,0.00,469,WeatherCatV1.23B16,2013-11-29 19:07:00,
2013-11-29 13:08:00,43.3,29.1,30.25,SW,221,3.0,9.0,57,0.00,,,0.00,469,WeatherCatV1.23B16,2013-11-29 19:08:00,
2013-11-29 13:10:00,43.5,28.9,30.25,SW,215,4.0,7.0,56,0.00,,,0.00,466,WeatherCatV1.23B16,2013-11-29 19:10:00,
2013-11-29 13:11:00,43.8,29.1,30.25,South,182,6.0,7.0,56,0.00,,,0.00,464,WeatherCatV1.23B16,2013-11-29 19:11:00,
2013-11-29 13:12:00,43.9,29.2,30.25,South,179,5.0,6.0,56,0.00,,,0.00,464,WeatherCatV1.23B16,2013-11-29 19:12:00,
2013-11-29 13:13:00,44.1,29.4,30.25,South,185,2.0,11.0,56,0.00,,,0.00,464,WeatherCatV1.23B16,2013-11-29 19:13:00,
2013-11-29 13:15:00,44.2,29.1,30.25,SSW,212,4.0,13.0,55,0.00,,,0.00,462,WeatherCatV1.23B16,2013-11-29 19:15:00,
2013-11-29 13:16:00,44.1,29.0,30.25,SSW,213,9.0,13.0,55,0.00,,,0.00,462,WeatherCatV1.23B16,2013-11-29 19:16:00,
2013-11-29 13:18:00,43.9,28.8,30.25,SSW,211,9.0,13.0,55,0.00,,,0.00,461,WeatherCatV1.23B16,2013-11-29 19:18:00,
2013-11-29 13:20:00,43.8,28.7,30.25,SSW,202,4.0,11.0,55,0.00,,,0.00,461,WeatherCatV1.23B16,2013-11-29 19:20:00,
2013-11-29 13:21:00,43.8,28.7,30.25,South,186,4.0,14.0,55,0.00,,,0.00,461,WeatherCatV1.23B16,2013-11-29 19:21:00,
2013-11-29 13:23:00,43.9,28.8,30.25,SSW,209,5.0,14.0,55,0.00,,,0.00,459,WeatherCatV1.23B16,2013-11-29 19:23:00,
2013-11-29 13:24:00,44.0,28.9,30.25,SSW,207,7.0,14.0,55,0.00,,,0.00,459,WeatherCatV1.23B16,2013-11-29 19:24:00,
2013-11-29 13:25:00,44.3,29.2,30.25,South,184,2.0,7.0,55,0.00,,,0.00,459,WeatherCatV1.23B16,2013-11-29 19:25:00,
2013-11-29 13:26:00,44.4,29.3,30.25,South,184,1.0,7.0,55,0.00,,,0.00,459,WeatherCatV1.23B16,2013-11-29 19:26:00,
2013-11-29 13:28:00,44.7,29.5,30.25,South,184,2.0,11.0,55,0.00,,,0.00,466,WeatherCatV1.23B16,2013-11-29 19:28:00,
2013-11-29 13:29:00,44.8,29.2,30.25,South,184,0.0,11.0,54,0.00,,,0.00,466,WeatherCatV1.23B16,2013-11-29 19:29:00,
2013-11-29 13:30:00,45.1,29.5,30.25,South,184,3.0,7.0,54,0.00,,,0.00,471,WeatherCatV1.23B16,2013-11-29 19:30:00,
2013-11-29 13:31:00,45.2,29.5,30.25,South,178,5.0,11.0,54,0.00,,,0.00,478,WeatherCatV1.23B16,2013-11-29 19:31:00,
2013-11-29 13:33:00,45.4,29.7,30.25,South,186,9.0,12.0,54,0.00,,,0.00,445,WeatherCatV1.23B16,2013-11-29 19:33:00,
2013-11-29 13:34:00,45.4,29.3,30.25,South,179,6.0,12.0,53,0.00,,,0.00,455,WeatherCatV1.23B16,2013-11-29 19:34:00,
2013-11-29 13:35:00,45.3,29.2,30.25,SSE,153,2.0,12.0,53,0.00,,,0.00,468,WeatherCatV1.23B16,2013-11-29 19:35:00,
2013-11-29 13:36:00,45.3,29.2,30.25,South,169,5.0,12.0,53,0.00,,,0.00,434,WeatherCatV1.23B16,2013-11-29 19:36:00,
2013-11-29 13:39:00,45.4,29.3,30.24,South,172,3.0,10.0,53,0.00,,,0.00,483,WeatherCatV1.23B16,2013-11-29 19:39:00,
2013-11-29 13:40:00,45.4,29.3,30.24,SSE,167,9.0,9.0,53,0.00,,,0.00,483,WeatherCatV1.23B16,2013-11-29 19:40:00,
2013-11-29 13:41:00,45.4,29.3,30.24,SSW,193,7.0,9.0,53,0.00,,,0.00,483,WeatherCatV1.23B16,2013-11-29 19:41:00,
2013-11-29 13:42:00,45.5,29.4,30.24,SSW,194,9.0,9.0,53,0.00,,,0.00,355,WeatherCatV1.23B16,2013-11-29 19:42:00,
2013-11-29 13:44:00,45.5,29.4,30.23,SSW,194,6.0,9.0,53,0.00,,,0.00,318,WeatherCatV1.23B16,2013-11-29 19:44:00,
2013-11-29 13:45:00,45.4,29.3,30.23,SE,141,7.0,11.0,53,0.00,,,0.00,262,WeatherCatV1.23B16,2013-11-29 19:45:00,
2013-11-29 13:46:00,45.3,29.2,30.23,South,175,5.0,11.0,53,0.00,,,0.00,241,WeatherCatV1.23B16,2013-11-29 19:46:00,
2013-11-29 13:47:00,45.2,29.1,30.23,SSE,159,5.0,11.0,53,0.00,,,0.00,241,WeatherCatV1.23B16,2013-11-29 19:47:00,
2013-11-29 13:49:00,45.3,29.2,30.23,SSW,199,6.0,9.0,53,0.00,,,0.00,299,WeatherCatV1.23B16,2013-11-29 19:49:00,
2013-11-29 13:50:00,45.3,29.2,30.23,SSW,205,3.0,9.0,53,0.00,,,0.00,232,WeatherCatV1.23B16,2013-11-29 19:50:00,
2013-11-29 13:51:00,45.4,29.3,30.23,SSW,210,6.0,10.0,53,0.00,,,0.00,243,WeatherCatV1.23B16,2013-11-29 19:51:00,
2013-11-29 13:52:00,45.3,29.2,30.23,South,191,5.0,12.0,53,0.00,,,0.00,246,WeatherCatV1.23B16,2013-11-29 19:52:00,
2013-11-29 13:54:00,45.4,29.7,30.23,South,191,1.0,6.0,54,0.00,,,0.00,248,WeatherCatV1.23B16,2013-11-29 19:54:00,
2013-11-29 13:55:00,45.5,29.8,30.23,SSW,192,4.0,5.0,54,0.00,,,0.00,302,WeatherCatV1.23B16,2013-11-29 19:55:00,
2013-11-29 13:56:00,45.6,29.5,30.22,SSW,194,5.0,16.0,53,0.00,,,0.00,237,WeatherCatV1.23B16,2013-11-29 19:56:00,
2013-11-29 13:57:00,45.5,29.4,30.22,SSW,200,7.0,16.0,53,0.00,,,0.00,276,WeatherCatV1.23B16,2013-11-29 19:57:00,
2013-11-29 13:59:00,45.4,29.3,30.22,SSW,198,5.0,14.0,53,0.00,,,0.00,258,WeatherCatV1.23B16,2013-11-29 19:59:00,
2013-11-29 14:00:00,45.4,29.3,30.22,South,180,9.0,15.0,53,0.00,,,0.00,283,WeatherCatV1.23B16,2013-11-29 20:00:00,
2013-11-29 14:01:00,45.3,29.2,30.22,South,188,14.0,15.0,53,0.00,,,0.00,267,WeatherCatV1.23B16,2013-11-29 20:01:00,
2013-11-29 14:02:00,45.3,29.2,30.22,South,177,5.0,15.0,53,0.00,,,0.00,267,WeatherCatV1.23B16,2013-11-29 20:02:00,
2013-11-29 14:04:00,45.5,29.4,30.22,SSW,194,9.0,9.0,53,0.00,,,0.00,255,WeatherCatV1.23B16,2013-11-29 20:04:00,
2013-11-29 14:06:00,45.5,29.4,30.22,SSW,210,5.0,9.0,53,0.00,,,0.00,265,WeatherCatV1.23B16,2013-11-29 20:06:00,
2013-11-29 14:07:00,45.6,29.5,30.22,SSW,207,9.0,13.0,53,0.00,,,0.00,253,WeatherCatV1.23B16,2013-11-29 20:07:00,
2013-11-29 14:10:00,45.9,30.2,30.22,SSE,160,2.0,9.0,54,0.00,,,0.00,287,WeatherCatV1.23B16,2013-11-29 20:10:00,
2013-11-29 14:11:00,46.0,29.8,30.22,SE,134,9.0,11.0,53,0.00,,,0.00,309,WeatherCatV1.23B16,2013-11-29 20:11:00,
2013-11-29 14:12:00,46.0,29.8,30.22,SSE,157,11.0,15.0,53,0.00,,,0.00,332,WeatherCatV1.23B16,2013-11-29 20:12:00,
2013-11-29 14:15:00,46.1,29.5,30.21,South,181,6.0,11.0,52,0.00,,,0.00,309,WeatherCatV1.23B16,2013-11-29 20:15:00,
2013-11-29 14:16:00,46.2,30.0,30.21,SSW,204,10.0,11.0,53,0.00,,,0.00,394,WeatherCatV1.23B16,2013-11-29 20:16:00,
2013-11-29 14:17:00,46.4,29.7,30.21,SSE,164,7.0,14.0,52,0.00,,,0.00,552,WeatherCatV1.23B16,2013-11-29 20:17:00,
2013-11-29 14:20:00,46.9,30.2,30.21,South,178,4.0,12.0,52,0.00,,,0.00,538,WeatherCatV1.23B16,2013-11-29 20:20:00,
2013-11-29 14:21:00,47.0,30.3,30.21,South,183,4.0,11.0,52,0.00,,,0.00,353,WeatherCatV1.23B16,2013-11-29 20:21:00,
2013-11-29 14:22:00,47.0,30.3,30.21,South,183,4.0,8.0,52,0.00,,,0.00,353,WeatherCatV1.23B16,2013-11-29 20:22:00,
2013-11-29 14:23:00,47.3,30.1,30.21,South,179,10.0,12.0,51,0.00,,,0.00,555,WeatherCatV1.23B16,2013-11-29 20:23:00,
2013-11-29 14:25:00,47.4,30.2,30.21,SSW,209,10.0,13.0,51,0.00,,,0.00,454,WeatherCatV1.23B16,2013-11-29 20:25:00,
2013-11-29 14:26:00,47.4,30.2,30.21,SSW,209,8.0,13.0,51,0.00,,,0.00,283,WeatherCatV1.23B16,2013-11-29 20:26:00,
2013-11-29 14:27:00,47.4,30.2,30.20,SSW,197,3.0,10.0,51,0.00,,,0.00,283,WeatherCatV1.23B16,2013-11-29 20:27:00,
2013-11-29 14:28:00,47.4,30.2,30.21,South,175,8.0,10.0,51,0.00,,,0.00,292,WeatherCatV1.23B16,2013-11-29 20:28:00,
2013-11-29 14:30:00,47.1,29.9,30.21,SSE,153,2.0,13.0,51,0.00,,,0.00,257,WeatherCatV1.23B16,2013-11-29 20:30:00,
2013-11-29 14:32:00,46.9,29.7,30.20,SSE,157,6.0,10.0,51,0.00,,,0.00,248,WeatherCatV1.23B16,2013-11-29 20:32:00,
2013-11-29 14:33:00,46.7,29.5,30.20,SSE,162,6.0,10.0,51,0.00,,,0.00,227,WeatherCatV1.23B16,2013-11-29 20:33:00,
2013-11-29 14:34:00,46.7,29.5,30.20,SSE,161,4.0,10.0,51,0.00,,,0.00,227,WeatherCatV1.23B16,2013-11-29 20:34:00,
2013-11-29 14:36:00,46.8,30.1,30.20,SE,138,4.0,8.0,52,0.00,,,0.00,403,WeatherCatV1.23B16,2013-11-29 20:36:00,
2013-11-29 14:37:00,46.8,30.1,30.20,South,171,6.0,8.0,52,0.00,,,0.00,403,WeatherCatV1.23B16,2013-11-29 20:37:00,
2013-11-29 14:38:00,46.9,30.2,30.20,South,171,5.0,6.0,52,0.00,,,0.00,214,WeatherCatV1.23B16,2013-11-29 20:38:00,
2013-11-29 14:39:00,46.9,30.2,30.20,South,182,4.0,7.0,52,0.00,,,0.00,214,WeatherCatV1.23B16,2013-11-29 20:39:00,
2013-11-29 14:41:00,46.9,29.7,30.20,SSW,203,3.0,12.0,51,0.00,,,0.00,204,WeatherCatV1.23B16,2013-11-29 20:41:00,
2013-11-29 14:42:00,46.9,29.7,30.20,South,182,5.0,17.0,51,0.00,,,0.00,204,WeatherCatV1.23B16,2013-11-29 20:42:00,
2013-11-29 14:43:00,46.8,30.1,30.20,SSE,165,0.0,17.0,52,0.00,,,0.00,214,WeatherCatV1.23B16,2013-11-29 20:43:00,
2013-11-29 14:44:00,46.8,30.1,30.20,SSE,164,0.0,17.0,52,0.00,,,0.00,214,WeatherCatV1.23B16,2013-11-29 20:44:00,
2013-11-29 14:46:00,46.7,29.5,30.20,South,172,4.0,15.0,51,0.00,,,0.00,181,WeatherCatV1.23B16,2013-11-29 20:46:00,
2013-11-29 14:47:00,46.7,29.5,30.20,South,186,5.0,15.0,51,0.00,,,0.00,183,WeatherCatV1.23B16,2013-11-29 20:47:00,
2013-11-29 14:48:00,46.6,29.9,30.20,South,180,5.0,7.0,52,0.00,,,0.00,214,WeatherCatV1.23B16,2013-11-29 20:48:00,
2013-11-29 14:49:00,46.6,29.9,30.20,South,184,3.0,9.0,52,0.00,,,0.00,171,WeatherCatV1.23B16,2013-11-29 20:49:00,
2013-11-29 14:52:00,46.6,29.9,30.20,SW,216,7.0,15.0,52,0.00,,,0.00,160,WeatherCatV1.23B16,2013-11-29 20:52:00,
2013-11-29 14:53:00,46.6,29.9,30.20,SW,215,5.0,15.0,52,0.00,,,0.00,155,WeatherCatV1.23B16,2013-11-29 20:53:00,
2013-11-29 14:54:00,46.5,29.8,30.20,SSW,209,9.0,15.0,52,0.00,,,0.00,151,WeatherCatV1.23B16,2013-11-29 20:54:00,
2013-11-29 14:57:00,46.4,29.7,30.20,South,191,5.0,9.0,52,0.00,,,0.00,141,WeatherCatV1.23B16,2013-11-29 20:57:00,
2013-11-29 14:58:00,46.4,29.7,30.20,South,191,1.0,9.0,52,0.00,,,0.00,141,WeatherCatV1.23B16,2013-11-29 20:58:00,
2013-11-29 14:59:00,46.4,29.7,30.20,SSE,167,4.0,7.0,52,0.00,,,0.00,139,WeatherCatV1.23B16,2013-11-29 20:59:00,
2013-11-29 15:00:00,46.4,29.7,30.20,SSW,205,13.0,13.0,52,0.00,,,0.00,139,WeatherCatV1.23B16,2013-11-29 21:00:00,
2013-11-29 15:02:00,46.3,29.6,30.19,South,188,10.0,15.0,52,0.00,,,0.00,137,WeatherCatV1.23B16,2013-11-29 21:02:00,
2013-11-29 15:03:00,46.2,29.6,30.19,South,184,13.0,15.0,52,0.00,,,0.00,137,WeatherCatV1.23B16,2013-11-29 21:03:00,
2013-11-29 15:04:00,46.2,29.6,30.19,SSW,202,5.0,15.0,52,0.00,,,0.00,137,WeatherCatV1.23B16,2013-11-29 21:04:00,
2013-11-29 15:05:00,46.1,29.9,30.19,SSW,194,8.0,13.0,53,0.00,,,0.00,137,WeatherCatV1.23B16,2013-11-29 21:05:00,
2013-11-29 15:08:00,46.1,29.9,30.19,SSE,150,5.0,13.0,53,0.00,,,0.00,137,WeatherCatV1.23B16,2013-11-29 21:08:00,
2013-11-29 15:09:00,46.1,29.9,30.19,South,169,5.0,10.0,53,0.00,,,0.00,137,WeatherCatV1.23B16,2013-11-29 21:09:00,
2013-11-29 15:11:00,46.1,29.9,30.19,SSW,213,3.0,10.0,53,0.00,,,0.00,137,WeatherCatV1.23B16,2013-11-29 21:11:00,
2013-11-29 15:13:00,46.3,30.1,30.19,SSW,197,4.0,6.0,53,0.00,,,0.00,137,WeatherCatV1.23B16,2013-11-29 21:13:00,
2013-11-29 15:14:00,46.3,30.1,30.20,South,179,4.0,10.0,53,0.00,,,0.00,137,WeatherCatV1.23B16,2013-11-29 21:14:00,
2013-11-29 15:16:00,46.5,30.3,30.19,SSE,167,3.0,6.0,53,0.00,,,0.00,132,WeatherCatV1.23B16,2013-11-29 21:16:00,
2013-11-29 15:18:00,46.6,30.4,30.19,SSE,168,2.0,7.0,53,0.00,,,0.00,130,WeatherCatV1.23B16,2013-11-29 21:18:00,
2013-11-29 15:19:00,46.7,30.5,30.19,South,182,2.0,7.0,53,0.00,,,0.00,125,WeatherCatV1.23B16,2013-11-29 21:19:00,
2013-11-29 15:20:00,46.7,30.5,30.19,South,191,4.0,7.0,53,0.00,,,0.00,123,WeatherCatV1.23B16,2013-11-29 21:20:00,
2013-11-29 15:21:00,46.8,30.6,30.19,South,183,9.0,10.0,53,0.00,,,0.00,121,WeatherCatV1.23B16,2013-11-29 21:21:00,
2013-11-29 15:23:00,46.8,30.6,30.19,SSW,193,12.0,12.0,53,0.00,,,0.00,118,WeatherCatV1.23B16,2013-11-29 21:23:00,
2013-11-29 15:24:00,46.9,30.7,30.19,SSW,208,4.0,12.0,53,0.00,,,0.00,118,WeatherCatV1.23B16,2013-11-29 21:24:00,
2013-11-29 15:26:00,46.9,30.7,30.19,SSW,213,5.0,14.0,53,0.00,,,0.00,118,WeatherCatV1.23B16,2013-11-29 21:26:00,
2013-11-29 15:27:00,46.9,30.7,30.19,SSW,209,6.0,14.0,53,0.00,,,0.00,120,WeatherCatV1.23B16,2013-11-29 21:27:00,
2013-11-29 15:28:00,46.9,30.7,30.19,South,173,13.0,14.0,53,0.00,,,0.00,134,WeatherCatV1.23B16,2013-11-29 21:28:00,
2013-11-29 15:29:00,47.0,30.8,30.19,South,171,4.0,14.0,53,0.00,,,0.00,165,WeatherCatV1.23B16,2013-11-29 21:29:00,
2013-11-29 15:30:00,47.0,30.8,30.19,SW,236,3.0,14.0,53,0.00,,,0.00,134,WeatherCatV1.23B16,2013-11-29 21:30:00,
2013-11-29 15:31:00,47.0,30.8,30.19,SW,236,0.0,9.0,53,0.00,,,0.00,114,WeatherCatV1.23B16,2013-11-29 21:31:00,
2013-11-29 15:32:00,47.0,30.8,30.19,South,175,5.0,11.0,53,0.00,,,0.00,105,WeatherCatV1.23B16,2013-11-29 21:32:00,
2013-11-29 15:33:00,47.0,30.8,30.19,South,190,4.0,11.0,53,0.00,,,0.00,104,WeatherCatV1.23B16,2013-11-29 21:33:00,
2013-11-29 15:34:00,47.0,30.8,30.19,SSE,160,8.0,8.0,53,0.00,,,0.00,109,WeatherCatV1.23B16,2013-11-29 21:34:00,
2013-11-29 15:35:00,47.0,30.8,30.19,South,190,3.0,10.0,53,0.00,,,0.00,95,WeatherCatV1.23B16,2013-11-29 21:35:00,
2013-11-29 15:36:00,47.1,30.9,30.19,South,190,4.0,10.0,53,0.00,,,0.00,90,WeatherCatV1.23B16,2013-11-29 21:36:00,
2013-11-29 15:37:00,47.0,30.8,30.19,South,187,5.0,12.0,53,0.00,,,0.00,84,WeatherCatV1.23B16,2013-11-29 21:37:00,
2013-11-29 15:38:00,47.0,30.8,30.19,South,178,6.0,12.0,53,0.00,,,0.00,84,WeatherCatV1.23B16,2013-11-29 21:38:00,
2013-11-29 15:39:00,47.0,30.8,30.19,South,188,6.0,9.0,53,0.00,,,0.00,83,WeatherCatV1.23B16,2013-11-29 21:39:00,
2013-11-29 15:40:00,47.0,30.8,30.19,South,185,5.0,9.0,53,0.00,,,0.00,81,WeatherCatV1.23B16,2013-11-29 21:40:00,
2013-11-29 15:41:00,47.0,30.8,30.19,South,191,4.0,11.0,53,0.00,,,0.00,81,WeatherCatV1.23B16,2013-11-29 21:41:00,
2013-11-29 15:42:00,47.0,30.8,30.19,SW,214,9.0,11.0,53,0.00,,,0.00,79,WeatherCatV1.23B16,2013-11-29 21:42:00,
2013-11-29 15:43:00,46.9,30.7,30.19,SSW,211,8.0,15.0,53,0.00,,,0.00,81,WeatherCatV1.23B16,2013-11-29 21:43:00,
2013-11-29 15:44:00,46.9,30.7,30.19,SSW,202,4.0,9.0,53,0.00,,,0.00,77,WeatherCatV1.23B16,2013-11-29 21:44:00,
2013-11-29 15:45:00,46.8,30.6,30.19,SSW,194,8.0,10.0,53,0.00,,,0.00,77,WeatherCatV1.23B16,2013-11-29 21:45:00,
2013-11-29 15:46:00,46.8,30.6,30.19,South,173,4.0,11.0,53,0.00,,,0.00,77,WeatherCatV1.23B16,2013-11-29 21:46:00,
2013-11-29 15:47:00,46.8,30.6,30.19,SSW,196,5.0,11.0,53,0.00,,,0.00,76,WeatherCatV1.23B16,2013-11-29 21:47:00,
2013-11-29 15:48:00,46.8,30.6,30.19,South,178,6.0,11.0,53,0.00,,,0.00,76,WeatherCatV1.23B16,2013-11-29 21:48:00,
2013-11-29 15:49:00,46.8,30.6,30.19,South,179,3.0,10.0,53,0.00,,,0.00,76,WeatherCatV1.23B16,2013-11-29 21:49:00,
2013-11-29 15:50:00,46.8,30.6,30.19,South,183,9.0,10.0,53,0.00,,,0.00,74,WeatherCatV1.23B16,2013-11-29 21:50:00,
2013-11-29 15:51:00,46.7,30.5,30.19,SSE,157,9.0,10.0,53,0.00,,,0.00,72,WeatherCatV1.23B16,2013-11-29 21:51:00,
2013-11-29 15:53:00,46.7,30.5,30.19,SSW,194,5.0,9.0,53,0.00,,,0.00,70,WeatherCatV1.23B16,2013-11-29 21:53:00,
2013-11-29 15:54:00,46.7,31.0,30.19,South,184,7.0,9.0,54,0.00,,,0.00,69,WeatherCatV1.23B16,2013-11-29 21:54:00,
2013-11-29 15:56:00,46.7,31.0,30.18,SSW,199,10.0,13.0,54,0.00,,,0.00,67,WeatherCatV1.23B16,2013-11-29 21:56:00,
2013-11-29 15:58:00,46.7,31.0,30.18,South,184,6.0,7.0,54,0.00,,,0.00,63,WeatherCatV1.23B16,2013-11-29 21:58:00,
2013-11-29 15:59:00,46.7,31.0,30.18,South,173,2.0,7.0,54,0.00,,,0.00,62,WeatherCatV1.23B16,2013-11-29 21:59:00,
2013-11-29 16:01:00,46.6,30.9,30.18,South,189,5.0,10.0,54,0.00,,,0.00,60,WeatherCatV1.23B16,2013-11-29 22:01:00,
2013-11-29 16:02:00,46.6,30.9,30.18,SSW,211,9.0,10.0,54,0.00,,,0.00,58,WeatherCatV1.23B16,2013-11-29 22:02:00,
2013-11-29 16:03:00,46.5,30.8,30.18,South,175,4.0,9.0,54,0.00,,,0.00,56,WeatherCatV1.23B16,2013-11-29 22:03:00,
2013-11-29 16:04:00,46.5,30.8,30.18,South,175,2.0,9.0,54,0.00,,,0.00,54,WeatherCatV1.23B16,2013-11-29 22:04:00,
2013-11-29 16:06:00,46.5,30.8,30.18,South,175,5.0,6.0,54,0.00,,,0.00,53,WeatherCatV1.23B16,2013-11-29 22:06:00,
2013-11-29 16:07:00,46.5,30.8,30.18,South,175,1.0,6.0,54,0.00,,,0.00,51,WeatherCatV1.23B16,2013-11-29 22:07:00,
2013-11-29 16:08:00,46.4,30.7,30.18,South,175,4.0,7.0,54,0.00,,,0.00,47,WeatherCatV1.23B16,2013-11-29 22:08:00,
2013-11-29 16:09:00,46.4,30.7,30.18,South,175,0.0,7.0,54,0.00,,,0.00,47,WeatherCatV1.23B16,2013-11-29 22:09:00,
2013-11-29 16:10:00,46.4,30.7,30.18,South,181,7.0,7.0,54,0.00,,,0.00,47,WeatherCatV1.23B16,2013-11-29 22:10:00,
2013-11-29 16:11:00,46.3,30.6,30.18,SSW,203,4.0,11.0,54,0.00,,,0.00,54,WeatherCatV1.23B16,2013-11-29 22:11:00,
2013-11-29 16:12:00,46.3,30.6,30.18,SSW,196,4.0,11.0,54,0.00,,,0.00,46,WeatherCatV1.23B16,2013-11-29 22:12:00,
2013-11-29 16:13:00,46.3,30.6,30.18,SSW,196,2.0,6.0,54,0.00,,,0.00,42,WeatherCatV1.23B16,2013-11-29 22:13:00,
2013-11-29 16:14:00,46.3,30.6,30.18,South,184,3.0,7.0,54,0.00,,,0.00,42,WeatherCatV1.23B16,2013-11-29 22:14:00,
2013-11-29 16:15:00,46.3,31.0,30.18,South,186,5.0,7.0,55,0.00,,,0.00,42,WeatherCatV1.23B16,2013-11-29 22:15:00,
2013-11-29 16:16:00,46.3,30.6,30.18,South,183,2.0,7.0,54,0.00,,,0.00,39,WeatherCatV1.23B16,2013-11-29 22:16:00,
2013-11-29 16:18:00,46.3,30.6,30.18,South,183,0.0,5.0,54,0.00,,,0.00,37,WeatherCatV1.23B16,2013-11-29 22:18:00,
2013-11-29 16:19:00,46.3,30.6,30.18,South,183,2.0,4.0,54,0.00,,,0.00,37,WeatherCatV1.23B16,2013-11-29 22:19:00,
2013-11-29 16:20:00,46.2,30.5,30.18,South,183,2.0,5.0,54,0.00,,,0.00,33,WeatherCatV1.23B16,2013-11-29 22:20:00,
2013-11-29 16:22:00,46.1,30.4,30.18,South,184,1.0,6.0,54,0.00,,,0.00,30,WeatherCatV1.23B16,2013-11-29 22:22:00,
2013-11-29 16:23:00,46.1,30.4,30.18,South,183,1.0,3.0,54,0.00,,,0.00,28,WeatherCatV1.23B16,2013-11-29 22:23:00,
2013-11-29 16:25:00,46.0,30.8,30.19,South,184,0.0,5.0,55,0.00,,,0.00,25,WeatherCatV1.23B16,2013-11-29 22:25:00,
2013-11-29 16:26:00,46.0,30.8,30.19,South,183,3.0,5.0,55,0.00,,,0.00,23,WeatherCatV1.23B16,2013-11-29 22:26:00,
2013-11-29 16:27:00,46.0,30.8,30.18,South,186,7.0,7.0,55,0.00,,,0.00,23,WeatherCatV1.23B16,2013-11-29 22:27:00,
2013-11-29 16:28:00,46.0,30.8,30.18,South,188,3.0,7.0,55,0.00,,,0.00,21,WeatherCatV1.23B16,2013-11-29 22:28:00,
2013-11-29 16:30:00,46.0,30.8,30.19,South,188,1.0,5.0,55,0.00,,,0.00,18,WeatherCatV1.23B16,2013-11-29 22:30:00,
2013-11-29 16:31:00,45.9,30.7,30.18,South,187,0.0,3.0,55,0.00,,,0.00,18,WeatherCatV1.23B16,2013-11-29 22:31:00,
2013-11-29 16:32:00,45.8,30.6,30.18,South,187,1.0,3.0,55,0.00,,,0.00,18,WeatherCatV1.23B16,2013-11-29 22:32:00,
2013-11-29 16:33:00,45.8,30.6,30.18,South,187,3.0,3.0,55,0.00,,,0.00,16,WeatherCatV1.23B16,2013-11-29 22:33:00,
2013-11-29 16:35:00,45.6,30.8,30.18,South,188,4.0,6.0,56,0.00,,,0.00,16,WeatherCatV1.23B16,2013-11-29 22:35:00,
2013-11-29 16:36:00,45.6,30.8,30.18,South,188,4.0,6.0,56,0.00,,,0.00,16,WeatherCatV1.23B16,2013-11-29 22:36:00,
2013-11-29 16:37:00,45.6,30.8,30.18,SSW,192,2.0,6.0,56,0.00,,,0.00,16,WeatherCatV1.23B16,2013-11-29 22:37:00,
2013-11-29 16:39:00,45.5,30.7,30.18,SSW,192,2.0,4.0,56,0.00,,,0.00,14,WeatherCatV1.23B16,2013-11-29 22:39:00,
2013-11-29 16:41:00,45.4,30.6,30.18,SSW,193,2.0,5.0,56,0.00,,,0.00,14,WeatherCatV1.23B16,2013-11-29 22:41:00,
2013-11-29 16:42:00,45.3,30.5,30.18,SSW,193,2.0,2.0,56,0.00,,,0.00,16,WeatherCatV1.23B16,2013-11-29 22:42:00,
2013-11-29 16:44:00,45.3,30.5,30.18,SSW,192,1.0,4.0,56,0.00,,,0.00,16,WeatherCatV1.23B16,2013-11-29 22:44:00,
2013-11-29 16:46:00,45.3,31.0,30.18,SSW,192,2.0,3.0,57,0.00,,,0.00,16,WeatherCatV1.23B16,2013-11-29 22:46:00,
2013-11-29 16:47:00,45.3,31.0,30.17,SSW,193,0.0,4.0,57,0.00,,,0.00,14,WeatherCatV1.23B16,2013-11-29 22:47:00,
2013-11-29 16:48:00,45.3,31.0,30.17,SSW,192,1.0,4.0,57,0.00,,,0.00,14,WeatherCatV1.23B16,2013-11-29 22:48:00,
2013-11-29 16:49:00,45.2,30.9,30.17,SSW,193,4.0,4.0,57,0.00,,,0.00,14,WeatherCatV1.23B16,2013-11-29 22:49:00,
2013-11-29 16:51:00,45.2,30.9,30.17,SSW,193,3.0,4.0,57,0.00,,,0.00,14,WeatherCatV1.23B16,2013-11-29 22:51:00,
2013-11-29 16:52:00,45.1,30.8,30.17,SSW,192,3.0,3.0,57,0.00,,,0.00,12,WeatherCatV1.23B16,2013-11-29 22:52:00,
2013-11-29 16:53:00,45.0,30.7,30.17,SSW,193,3.0,3.0,57,0.00,,,0.00,11,WeatherCatV1.23B16,2013-11-29 22:53:00,
2013-11-29 16:54:00,45.0,30.7,30.17,SSW,192,2.0,5.0,57,0.00,,,0.00,11,WeatherCatV1.23B16,2013-11-29 22:54:00,
2013-11-29 16:56:00,44.9,30.6,30.17,SSW,193,3.0,5.0,57,0.00,,,0.00,11,WeatherCatV1.23B16,2013-11-29 22:56:00,
2013-11-29 16:58:00,44.8,30.5,30.17,SSW,192,1.0,3.0,57,0.00,,,0.00,11,WeatherCatV1.23B16,2013-11-29 22:58:00,
2013-11-29 16:59:00,44.7,30.4,30.17,SSW,193,0.0,4.0,57,0.00,,,0.00,9,WeatherCatV1.23B16,2013-11-29 22:59:00,
2013-11-29 17:01:00,44.6,30.8,30.17,SSW,193,0.0,2.0,58,0.00,,,0.00,9,WeatherCatV1.23B16,2013-11-29 23:01:00,
2013-11-29 17:02:00,44.5,30.6,30.17,SSW,193,3.0,3.0,58,0.00,,,0.00,9,WeatherCatV1.23B16,2013-11-29 23:02:00,
2013-11-29 17:03:00,44.5,30.6,30.17,SSW,192,0.0,4.0,58,0.00,,,0.00,9,WeatherCatV1.23B16,2013-11-29 23:03:00,
2013-11-29 17:05:00,44.3,30.5,30.18,SSW,192,1.0,4.0,58,0.00,,,0.00,9,WeatherCatV1.23B16,2013-11-29 23:05:00,
2013-11-29 17:07:00,44.3,30.5,30.18,SSW,193,0.0,0.0,58,0.00,,,0.00,9,WeatherCatV1.23B16,2013-11-29 23:07:00,
2013-11-29 17:08:00,44.3,30.5,30.17,SSW,193,2.0,3.0,58,0.00,,,0.00,9,WeatherCatV1.23B16,2013-11-29 23:08:00,
2013-11-29 17:09:00,44.2,30.4,30.17,SSW,193,0.0,3.0,58,0.00,,,0.00,9,WeatherCatV1.23B16,2013-11-29 23:09:00,
2013-11-29 17:10:00,44.2,30.4,30.17,SSW,192,2.0,4.0,58,0.00,,,0.00,9,WeatherCatV1.23B16,2013-11-29 23:10:00,
2013-11-29 17:12:00,44.1,30.3,30.17,SSW,192,1.0,4.0,58,0.00,,,0.00,9,WeatherCatV1.23B16,2013-11-29 23:12:00,
2013-11-29 17:13:00,44.1,30.3,30.17,SSW,193,0.0,2.0,58,0.00,,,0.00,9,WeatherCatV1.23B16,2013-11-29 23:13:00,
2013-11-29 17:14:00,44.0,30.2,30.17,SSW,193,0.0,2.0,58,0.00,,,0.00,9,WeatherCatV1.23B16,2013-11-29 23:14:00,
2013-11-29 17:15:00,44.0,30.2,30.17,SSW,193,0.0,0.0,58,0.00,,,0.00,7,WeatherCatV1.23B16,2013-11-29 23:15:00,
2013-11-29 17:16:00,44.0,30.2,30.17,SSW,192,0.0,0.0,58,0.00,,,0.00,5,WeatherCatV1.23B16,2013-11-29 23:16:00,
2013-11-29 17:17:00,44.0,30.2,30.17,SSW,193,0.0,0.0,58,0.00,,,0.00,5,WeatherCatV1.23B16,2013-11-29 23:17:00,
2013-11-29 17:18:00,43.9,30.1,30.17,SSW,192,0.0,1.0,58,0.00,,,0.00,5,WeatherCatV1.23B16,2013-11-29 23:18:00,
2013-11-29 17:19:00,43.8,30.0,30.17,SSW,192,0.0,2.0,58,0.00,,,0.00,0,WeatherCatV1.23B16,2013-11-29 23:19:00,
2013-11-29 17:20:00,43.8,30.0,30.17,SSW,193,0.0,2.0,58,0.00,,,0.00,0,WeatherCatV1.23B16,2013-11-29 23:20:00,
2013-11-29 17:21:00,43.7,30.3,30.17,SSW,192,0.0,0.0,59,0.00,,,0.00,0,WeatherCatV1.23B16,2013-11-29 23:21:00,
2013-11-29 17:22:00,43.7,30.3,30.17,SSW,193,0.0,0.0,59,0.00,,,0.00,0,WeatherCatV1.23B16,2013-11-29 23:22:00,
2013-11-29 17:23:00,43.6,30.2,30.17,SSW,193,0.0,0.0,59,0.00,,,0.00,0,WeatherCatV1.23B16,2013-11-29 23:23:00,
2013-11-29 17:24:00,43.6,30.2,30.17,SSW,193,0.0,0.0,59,0.00,,,0.00,0,WeatherCatV1.23B16,2013-11-29 23:24:00,
2013-11-29 17:25:00,43.5,30.1,30.17,SSW,192,0.0,0.0,59,0.00,,,0.00,0,WeatherCatV1.23B16,2013-11-29 23:25:00,
2013-11-29 17:27:00,43.5,30.5,30.17,SSW,192,0.0,0.0,60,0.00,,,0.00,0,WeatherCatV1.23B16,2013-11-29 23:27:00,
2013-11-29 17:29:00,43.4,30.0,30.17,SSW,192,0.0,0.0,59,0.00,,,0.00,0,WeatherCatV1.23B16,2013-11-29 23:29:00,
2013-11-29 17:30:00,43.4,30.5,30.17,SSW,192,0.0,0.0,60,0.00,,,0.00,0,WeatherCatV1.23B16,2013-11-29 23:30:00,
2013-11-29 17:31:00,43.3,30.4,30.17,SSW,193,0.0,0.0,60,0.00,,,0.00,0,WeatherCatV1.23B16,2013-11-29 23:31:00,
2013-11-29 17:32:00,43.4,31.3,30.17,SSW,193,0.0,0.0,62,0.00,,,0.00,0,WeatherCatV1.23B16,2013-11-29 23:32:00,
2013-11-29 17:33:00,43.4,30.9,30.17,SSW,192,0.0,0.0,61,0.00,,,0.00,0,WeatherCatV1.23B16,2013-11-29 23:33:00,
2013-11-29 17:34:00,43.3,30.8,30.17,SSW,193,0.0,0.0,61,0.00,,,0.00,0,WeatherCatV1.23B16,2013-11-29 23:34:00,
2013-11-29 17:35:00,43.3,30.8,30.16,SSW,192,0.0,0.0,61,0.00,,,0.00,0,WeatherCatV1.23B16,2013-11-29 23:35:00,
2013-11-29 17:36:00,43.2,30.7,30.17,SSW,193,0.0,0.0,61,0.00,,,0.00,0,WeatherCatV1.23B16,2013-11-29 23:36:00,
2013-11-29 17:38:00,43.1,30.6,30.16,SSW,193,0.0,0.0,61,0.00,,,0.00,0,WeatherCatV1.23B16,2013-11-29 23:38:00,
2013-11-29 17:39:00,43.0,30.1,30.17,SSW,193,0.0,0.0,60,0.00,,,0.00,0,WeatherCatV1.23B16,2013-11-29 23:39:00,
2013-11-29 17:41:00,42.9,30.0,30.16,SSW,193,0.0,0.0,60,0.00,,,0.00,0,WeatherCatV1.23B16,2013-11-29 23:41:00,
2013-11-29 17:43:00,42.8,29.9,30.16,SSW,193,0.0,0.0,60,0.00,,,0.00,0,WeatherCatV1.23B16,2013-11-29 23:43:00,
2013-11-29 17:44:00,42.5,29.6,30.16,SSW,193,0.0,0.0,60,0.00,,,0.00,0,WeatherCatV1.23B16,2013-11-29 23:44:00,
2013-11-29 17:46:00,42.4,29.9,30.17,SSW,192,0.0,0.0,61,0.00,,,0.00,0,WeatherCatV1.23B16,2013-11-29 23:46:00,
2013-11-29 17:47:00,42.2,29.7,30.17,SSW,192,0.0,0.0,61,0.00,,,0.00,0,WeatherCatV1.23B16,2013-11-29 23:47:00,
2013-11-29 17:48:00,42.2,29.7,30.16,SSW,192,0.0,0.0,61,0.00,,,0.00,0,WeatherCatV1.23B16,2013-11-29 23:48:00,
2013-11-29 17:50:00,42.0,29.5,30.17,SSW,193,0.0,0.0,61,0.00,,,0.00,0,WeatherCatV1.23B16,2013-11-29 23:50:00,
2013-11-29 17:51:00,41.9,29.8,30.17,SSW,193,0.0,0.0,62,0.00,,,0.00,0,WeatherCatV1.23B16,2013-11-29 23:51:00,
2013-11-29 17:52:00,41.8,29.8,30.17,SSW,192,0.0,0.0,62,0.00,,,0.00,0,WeatherCatV1.23B16,2013-11-29 23:52:00,
2013-11-29 17:53:00,41.8,29.8,30.17,SSW,193,0.0,0.0,62,0.00,,,0.00,0,WeatherCatV1.23B16,2013-11-29 23:53:00,
2013-11-29 17:55:00,41.6,29.6,30.17,SSW,192,0.0,0.0,62,0.00,,,0.00,0,WeatherCatV1.23B16,2013-11-29 23:55:00,
2013-11-29 17:56:00,41.6,29.6,30.17,SSW,193,0.0,0.0,62,0.00,,,0.00,0,WeatherCatV1.23B16,2013-11-29 23:56:00,
2013-11-29 17:57:00,41.5,29.5,30.17,SSW,192,0.0,0.0,62,0.00,,,0.00,0,WeatherCatV1.23B16,2013-11-29 23:57:00,
2013-11-29 17:58:00,41.5,29.5,30.17,SSW,193,0.0,0.0,62,0.00,,,0.00,0,WeatherCatV1.23B16,2013-11-29 23:58:00,
2013-11-29 18:00:00,41.3,29.7,30.17,SSW,193,0.0,0.0,63,0.00,,,0.00,0,WeatherCatV1.23B16,2013-11-30 00:00:00,
2013-11-29 18:01:00,41.2,29.6,30.17,SSW,192,0.0,0.0,63,0.00,,,0.00,0,WeatherCatV1.23B16,2013-11-30 00:01:00,
2013-11-29 18:03:00,41.1,29.5,30.17,SSW,193,0.0,0.0,63,0.00,,,0.00,0,WeatherCatV1.23B16,2013-11-30 00:03:00,
2013-11-29 18:06:00,40.9,29.3,30.17,SSW,192,0.0,0.0,63,0.00,,,0.00,0,WeatherCatV1.23B16,2013-11-30 00:06:00,
2013-11-29 18:08:00,40.7,29.5,30.17,SSW,192,0.0,0.0,64,0.00,,,0.00,0,WeatherCatV1.23B16,2013-11-30 00:08:00,
2013-11-29 18:09:00,40.6,29.4,30.17,SSW,193,0.0,0.0,64,0.00,,,0.00,0,WeatherCatV1.23B16,2013-11-30 00:09:00,
2013-11-29 18:11:00,40.5,29.3,30.17,SSW,193,0.0,0.0,64,0.00,,,0.00,0,WeatherCatV1.23B16,2013-11-30 00:11:00,
2013-11-29 18:13:00,40.2,29.0,30.17,SSW,192,0.0,0.0,64,0.00,,,0.00,0,WeatherCatV1.23B16,2013-11-30 00:13:00,
2013-11-29 18:14:00,40.2,29.0,30.17,SSW,193,0.0,0.0,64,0.00,,,0.00,0,WeatherCatV1.23B16,2013-11-30 00:14:00,
2013-11-29 18:16:00,40.0,29.2,30.17,SSW,193,0.0,0.0,65,0.00,,,0.00,0,WeatherCatV1.23B16,2013-11-30 00:16:00,
2013-11-29 18:18:00,39.8,29.0,30.17,SSW,193,0.0,0.0,65,0.00,,,0.00,0,WeatherCatV1.23B16,2013-11-30 00:18:00,
2013-11-29 18:19:00,39.7,28.9,30.18,SSW,192,0.0,0.0,65,0.00,,,0.00,0,WeatherCatV1.23B16,2013-11-30 00:19:00,
2013-11-29 18:21:00,39.5,28.7,30.18,SSW,193,0.0,0.0,65,0.00,,,0.00,0,WeatherCatV1.23B16,2013-11-30 00:21:00,
2013-11-29 18:22:00,39.3,28.5,30.18,SSW,192,0.0,0.0,65,0.00,,,0.00,0,WeatherCatV1.23B16,2013-11-30 00:22:00,
2013-11-29 18:23:00,39.2,28.8,30.18,SSW,193,0.0,0.0,66,0.00,,,0.00,0,WeatherCatV1.23B16,2013-11-30 00:23:00,
2013-11-29 18:24:00,39.1,28.7,30.17,SSW,193,0.0,0.0,66,0.00,,,0.00,0,WeatherCatV1.23B16,2013-11-30 00:24:00,
2013-11-29 18:27:00,38.8,28.4,30.17,SSW,193,0.0,0.0,66,0.00,,,0.00,0,WeatherCatV1.23B16,2013-11-30 00:27:00,
2013-11-29 18:28:00,38.7,28.7,30.17,SSW,192,0.0,0.0,67,0.00,,,0.00,0,WeatherCatV1.23B16,2013-11-30 00:28:00,
2013-11-29 18:29:00,38.7,28.7,30.17,SSW,193,0.0,0.0,67,0.00,,,0.00,0,WeatherCatV1.23B16,2013-11-30 00:29:00,
2013-11-29 18:30:00,38.6,28.6,30.17,SSW,193,0.0,0.0,67,0.00,,,0.00,0,WeatherCatV1.23B16,2013-11-30 00:30:00,
2013-11-29 18:32:00,38.5,28.5,30.17,SSW,192,0.0,0.0,67,0.00,,,0.00,0,WeatherCatV1.23B16,2013-11-30 00:32:00,
2013-11-29 18:33:00,38.4,28.8,30.17,SSW,193,0.0,0.0,68,0.00,,,0.00,0,WeatherCatV1.23B16,2013-11-30 00:33:00,
2013-11-29 18:34:00,38.4,28.8,30.17,SSW,193,0.0,0.0,68,0.00,,,0.00,0,WeatherCatV1.23B16,2013-11-30 00:34:00,
2013-11-29 18:35:00,38.4,28.8,30.17,SSW,192,0.0,0.0,68,0.00,,,0.00,0,WeatherCatV1.23B16,2013-11-30 00:35:00,
2013-11-29 18:37:00,38.3,28.7,30.17,SSW,193,0.0,0.0,68,0.00,,,0.00,0,WeatherCatV1.23B16,2013-11-30 00:37:00,
2013-11-29 18:38:00,38.3,28.7,30.17,SSW,193,0.0,0.0,68,0.00,,,0.00,0,WeatherCatV1.23B16,2013-11-30 00:38:00,
2013-11-29 18:39:00,38.3,28.7,30.17,SSW,192,0.0,0.0,68,0.00,,,0.00,0,WeatherCatV1.23B16,2013-11-30 00:39:00,
2013-11-29 18:41:00,38.2,28.6,30.17,SSW,192,0.0,0.0,68,0.00,,,0.00,0,WeatherCatV1.23B16,2013-11-30 00:41:00,
2013-11-29 18:43:00,38.2,28.6,30.17,SSW,192,0.0,0.0,68,0.00,,,0.00,0,WeatherCatV1.23B16,2013-11-30 00:43:00,
2013-11-29 18:44:00,38.2,28.9,30.17,SSW,192,0.0,0.0,69,0.00,,,0.00,0,WeatherCatV1.23B16,2013-11-30 00:44:00,
2013-11-29 18:45:00,38.1,28.8,30.17,SSW,192,0.0,0.0,69,0.00,,,0.00,0,WeatherCatV1.23B16,2013-11-30 00:45:00,
2013-11-29 18:46:00,38.0,28.8,30.17,SSW,192,0.0,0.0,69,0.00,,,0.00,0,WeatherCatV1.23B16,2013-11-30 00:46:00,
2013-11-29 18:48:00,37.9,28.6,30.17,SSW,193,0.0,0.0,69,0.00,,,0.00,0,WeatherCatV1.23B16,2013-11-30 00:48:00,
2013-11-29 18:49:00,37.8,28.6,30.17,SSW,193,0.0,0.0,69,0.00,,,0.00,0,WeatherCatV1.23B16,2013-11-30 00:49:00,
2013-11-29 18:50:00,37.8,28.9,30.17,SSW,192,0.0,0.0,70,0.00,,,0.00,0,WeatherCatV1.23B16,2013-11-30 00:50:00,
2013-11-29 18:52:00,37.6,28.4,30.17,SSW,193,0.0,0.0,69,0.00,,,0.00,0,WeatherCatV1.23B16,2013-11-30 00:52:00,
2013-11-29 18:53:00,37.7,29.2,30.17,SSW,193,0.0,0.0,71,0.00,,,0.00,0,WeatherCatV1.23B16,2013-11-30 00:53:00,
2013-11-29 18:54:00,37.7,29.5,30.17,SSW,193,0.0,0.0,72,0.00,,,0.00,0,WeatherCatV1.23B16,2013-11-30 00:54:00,
2013-11-29 18:55:00,37.7,29.2,30.17,SSW,193,0.0,0.0,71,0.00,,,0.00,0,WeatherCatV1.23B16,2013-11-30 00:55:00,
2013-11-29 18:57:00,37.6,29.1,30.17,SSW,193,0.0,0.0,71,0.00,,,0.00,0,WeatherCatV1.23B16,2013-11-30 00:57:00,
2013-11-29 18:58:00,37.6,29.1,30.17,SSW,193,0.0,0.0,71,0.00,,,0.00,0,WeatherCatV1.23B16,2013-11-30 00:58:00,
2013-11-29 18:59:00,37.5,29.0,30.17,SSW,192,0.0,0.0,71,0.00,,,0.00,0,WeatherCatV1.23B16,2013-11-30 00:59:00,
2013-11-29 19:00:00,37.5,29.0,30.17,SSW,192,0.0,0.0,71,0.00,,,0.00,0,WeatherCatV1.23B16,2013-11-30 01:00:00,
2013-11-29 19:02:00,37.3,28.8,30.17,SSW,193,0.0,0.0,71,0.00,,,0.00,0,WeatherCatV1.23B16,2013-11-30 01:02:00,
2013-11-29 19:04:00,37.2,28.3,30.18,SSW,193,0.0,0.0,70,0.00,,,0.00,0,WeatherCatV1.23B16,2013-11-30 01:04:00,
2013-11-29 19:05:00,37.1,28.2,30.18,SSW,193,0.0,0.0,70,0.00,,,0.00,0,WeatherCatV1.23B16,2013-11-30 01:05:00,
2013-11-29 19:07:00,36.9,28.0,30.18,SSW,193,0.0,0.0,70,0.00,,,0.00,0,WeatherCatV1.23B16,2013-11-30 01:07:00,
2013-11-29 19:09:00,36.6,28.1,30.18,SSW,193,0.0,0.0,71,0.00,,,0.00,0,WeatherCatV1.23B16,2013-11-30 01:09:00,
2013-11-29 19:11:00,36.4,27.6,30.18,SSW,193,0.0,0.0,70,0.00,,,0.00,0,WeatherCatV1.23B16,2013-11-30 01:11:00,
2013-11-29 19:12:00,36.2,27.7,30.18,SSW,193,0.0,0.0,71,0.00,,,0.00,0,WeatherCatV1.23B16,2013-11-30 01:12:00,
2013-11-29 19:14:00,36.0,27.9,30.18,SSW,193,0.0,0.0,72,0.00,,,0.00,0,WeatherCatV1.23B16,2013-11-30 01:14:00,
2013-11-29 19:16:00,35.9,27.8,30.18,SSW,193,0.0,0.0,72,0.00,,,0.00,0,WeatherCatV1.23B16,2013-11-30 01:16:00,
2013-11-29 19:17:00,35.8,27.7,30.18,SSW,193,0.0,0.0,72,0.00,,,0.00,0,WeatherCatV1.23B16,2013-11-30 01:17:00,
2013-11-29 19:18:00,35.8,27.7,30.18,SSW,193,0.0,0.0,72,0.00,,,0.00,0,WeatherCatV1.23B16,2013-11-30 01:18:00,
2013-11-29 19:20:00,35.7,27.6,30.18,SSW,193,0.0,0.0,72,0.00,,,0.00,0,WeatherCatV1.23B16,2013-11-30 01:20:00,
2013-11-29 19:21:00,35.7,27.9,30.18,SSW,193,0.0,0.0,73,0.00,,,0.00,0,WeatherCatV1.23B16,2013-11-30 01:21:00,
2013-11-29 19:22:00,35.6,27.8,30.18,SSW,193,0.0,0.0,73,0.00,,,0.00,0,WeatherCatV1.23B16,2013-11-30 01:22:00,
2013-11-29 19:23:00,35.6,27.8,30.17,SSW,193,0.0,0.0,73,0.00,,,0.00,0,WeatherCatV1.23B16,2013-11-30 01:23:00,
2013-11-29 19:25:00,35.7,27.9,30.17,SSW,193,0.0,0.0,73,0.00,,,0.00,0,WeatherCatV1.23B16,2013-11-30 01:25:00,
2013-11-29 19:26:00,35.7,28.2,30.17,SSW,193,0.0,0.0,74,0.00,,,0.00,0,WeatherCatV1.23B16,2013-11-30 01:26:00,
2013-11-29 19:27:00,35.6,27.8,30.17,SSW,193,0.0,0.0,73,0.00,,,0.00,0,WeatherCatV1.23B16,2013-11-30 01:27:00,
2013-11-29 19:28:00,35.7,28.2,30.17,SSW,192,0.0,0.0,74,0.00,,,0.00,0,WeatherCatV1.23B16,2013-11-30 01:28:00,
2013-11-29 19:30:00,36.0,28.5,30.17,SSW,192,0.0,0.0,74,0.00,,,0.00,0,WeatherCatV1.23B16,2013-11-30 01:30:00,
2013-11-29 19:31:00,36.2,28.7,30.17,SSW,193,0.0,0.0,74,0.00,,,0.00,0,WeatherCatV1.23B16,2013-11-30 01:31:00,
2013-11-29 19:33:00,36.4,29.6,30.17,SSW,193,0.0,0.0,76,0.00,,,0.00,0,WeatherCatV1.23B16,2013-11-30 01:33:00,
2013-11-29 19:35:00,36.2,29.0,30.17,SSW,193,0.0,0.0,75,0.00,,,0.00,0,WeatherCatV1.23B16,2013-11-30 01:35:00,
2013-11-29 19:36:00,36.2,28.7,30.17,SSW,193,0.0,0.0,74,0.00,,,0.00,0,WeatherCatV1.23B16,2013-11-30 01:36:00,
2013-11-29 19:37:00,36.2,28.7,30.17,SSW,193,0.0,0.0,74,0.00,,,0.00,0,WeatherCatV1.23B16,2013-11-30 01:37:00,
2013-11-29 19:38:00,36.1,28.6,30.17,SSW,193,0.0,0.0,74,0.00,,,0.00,0,WeatherCatV1.23B16,2013-11-30 01:38:00,
2013-11-29 19:40:00,36.0,28.5,30.17,SSW,192,0.0,0.0,74,0.00,,,0.00,0,WeatherCatV1.23B16,2013-11-30 01:40:00,
2013-11-29 19:41:00,35.9,28.4,30.17,SSW,193,0.0,0.0,74,0.00,,,0.00,0,WeatherCatV1.23B16,2013-11-30 01:41:00,
2013-11-29 19:42:00,35.9,28.4,30.17,SSW,193,0.0,0.0,74,0.00,,,0.00,0,WeatherCatV1.23B16,2013-11-30 01:42:00,
2013-11-29 19:43:00,35.6,27.8,30.18,SSW,193,0.0,0.0,73,0.00,,,0.00,0,WeatherCatV1.23B16,2013-11-30 01:43:00,
2013-11-29 19:44:00,35.5,27.7,30.18,SSW,192,0.0,0.0,73,0.00,,,0.00,0,WeatherCatV1.23B16,2013-11-30 01:44:00,
2013-11-29 19:45:00,35.2,27.4,30.18,SSW,193,0.0,0.0,73,0.00,,,0.00,0,WeatherCatV1.23B16,2013-11-30 01:45:00,
2013-11-29 19:46:00,35.0,26.9,30.18,SSW,193,0.0,0.0,72,0.00,,,0.00,0,WeatherCatV1.23B16,2013-11-30 01:46:00,
2013-11-29 19:47:00,34.8,26.7,30.18,SSW,193,0.0,0.0,72,0.00,,,0.00,0,WeatherCatV1.23B16,2013-11-30 01:47:00,
2013-11-29 19:48:00,34.5,26.8,30.18,SSW,193,0.0,0.0,73,0.00,,,0.00,0,WeatherCatV1.23B16,2013-11-30 01:48:00,
2013-11-29 19:49:00,34.4,26.7,30.18,SSW,193,0.0,0.0,73,0.00,,,0.00,0,WeatherCatV1.23B16,2013-11-30 01:49:00,
2013-11-29 19:50:00,34.4,27.0,30.18,SSW,192,0.0,0.0,74,0.00,,,0.00,0,WeatherCatV1.23B16,2013-11-30 01:50:00,
2013-11-29 19:51:00,34.4,27.0,30.18,SSW,192,0.0,0.0,74,0.00,,,0.00,0,WeatherCatV1.23B16,2013-11-30 01:51:00,
2013-11-29 19:52:00,34.3,26.9,30.18,SSW,193,0.0,0.0,74,0.00,,,0.00,0,WeatherCatV1.23B16,2013-11-30 01:52:00,
2013-11-29 19:53:00,34.1,26.7,30.18,SSW,193,0.0,0.0,74,0.00,,,0.00,0,WeatherCatV1.23B16,2013-11-30 01:53:00,
2013-11-29 19:54:00,34.0,26.6,30.18,SSW,193,0.0,0.0,74,0.00,,,0.00,0,WeatherCatV1.23B16,2013-11-30 01:54:00,
2013-11-29 19:55:00,33.9,26.5,30.18,SSW,193,0.0,0.0,74,0.00,,,0.00,0,WeatherCatV1.23B16,2013-11-30 01:55:00,
2013-11-29 19:56:00,33.9,26.5,30.18,SSW,193,0.0,0.0,74,0.00,,,0.00,0,WeatherCatV1.23B16,2013-11-30 01:56:00,
2013-11-29 19:57:00,33.7,26.6,30.18,SSW,193,0.0,0.0,75,0.00,,,0.00,0,WeatherCatV1.23B16,2013-11-30 01:57:00,
2013-11-29 19:58:00,33.6,26.5,30.18,SSW,193,0.0,0.0,75,0.00,,,0.00,0,WeatherCatV1.23B16,2013-11-30 01:58:00,
2013-11-29 20:00:00,33.5,26.4,30.18,SSW,193,0.0,0.0,75,0.00,,,0.00,0,WeatherCatV1.23B16,2013-11-30 02:00:00,
2013-11-29 20:01:00,33.4,26.3,30.18,SSW,192,0.0,0.0,75,0.00,,,0.00,0,WeatherCatV1.23B16,2013-11-30 02:01:00,
2013-11-29 20:02:00,33.4,26.7,30.18,SSW,192,0.0,0.0,76,0.00,,,0.00,0,WeatherCatV1.23B16,2013-11-30 02:02:00,
2013-11-29 20:04:00,33.3,26.6,30.18,SSW,193,0.0,0.0,76,0.00,,,0.00,0,WeatherCatV1.23B16,2013-11-30 02:04:00,
2013-11-29 20:05:00,33.2,26.5,30.18,SSW,193,0.0,0.0,76,0.00,,,0.00,0,WeatherCatV1.23B16,2013-11-30 02:05:00,
2013-11-29 20:06:00,33.2,26.5,30.17,SSW,193,0.0,0.0,76,0.00,,,0.00,0,WeatherCatV1.23B16,2013-11-30 02:06:00,
2013-11-29 20:07:00,33.1,26.7,30.18,SSW,193,0.0,0.0,77,0.00,,,0.00,0,WeatherCatV1.23B16,2013-11-30 02:07:00,
2013-11-29 20:08:00,33.0,26.6,30.17,SSW,193,0.0,0.0,77,0.00,,,0.00,0,WeatherCatV1.23B16,2013-11-30 02:08:00,
2013-11-29 20:09:00,33.0,26.6,30.17,SSW,193,0.0,0.0,77,0.00,,,0.00,0,WeatherCatV1.23B16,2013-11-30 02:09:00,
2013-11-29 20:10:00,33.1,27.0,30.17,SSW,193,0.0,0.0,78,0.00,,,0.00,0,WeatherCatV1.23B16,2013-11-30 02:10:00,
2013-11-29 20:11:00,33.1,27.0,30.17,SSW,193,0.0,0.0,78,0.00,,,0.00,0,WeatherCatV1.23B16,2013-11-30 02:11:00,
2013-11-29 20:12:00,33.0,26.6,30.17,SSW,193,0.0,0.0,77,0.00,,,0.00,0,WeatherCatV1.23B16,2013-11-30 02:12:00,
2013-11-29 20:13:00,33.1,27.0,30.17,SSW,193,0.0,0.0,78,0.00,,,0.00,0,WeatherCatV1.23B16,2013-11-30 02:13:00,
2013-11-29 20:15:00,33.2,27.1,30.18,SSW,193,0.0,0.0,78,0.00,,,0.00,0,WeatherCatV1.23B16,2013-11-30 02:15:00,
2013-11-29 20:16:00,33.1,27.0,30.18,SSW,193,0.0,0.0,78,0.00,,,0.00,0,WeatherCatV1.23B16,2013-11-30 02:16:00,
2013-11-29 20:17:00,33.2,27.1,30.18,SSW,193,0.0,0.0,78,0.00,,,0.00,0,WeatherCatV1.23B16,2013-11-30 02:17:00,
2013-11-29 20:19:00,33.2,27.1,30.18,SSW,192,0.0,0.0,78,0.00,,,0.00,0,WeatherCatV1.23B16,2013-11-30 02:19:00,
2013-11-29 20:20:00,33.2,27.1,30.18,SSW,193,0.0,0.0,78,0.00,,,0.00,0,WeatherCatV1.23B16,2013-11-30 02:20:00,
2013-11-29 20:21:00,33.2,27.1,30.18,SSW,193,0.0,0.0,78,0.00,,,0.00,0,WeatherCatV1.23B16,2013-11-30 02:21:00,
2013-11-29 20:22:00,33.2,27.1,30.18,SSW,193,0.0,0.0,78,0.00,,,0.00,0,WeatherCatV1.23B16,2013-11-30 02:22:00,
2013-11-29 20:24:00,33.1,27.0,30.17,SSW,192,0.0,0.0,78,0.00,,,0.00,0,WeatherCatV1.23B16,2013-11-30 02:24:00,
2013-11-29 20:25:00,33.2,27.1,30.17,SSW,193,0.0,0.0,78,0.00,,,0.00,0,WeatherCatV1.23B16,2013-11-30 02:25:00,
2013-11-29 20:26:00,33.1,27.0,30.17,SSW,193,0.0,0.0,78,0.00,,,0.00,0,WeatherCatV1.23B16,2013-11-30 02:26:00,
2013-11-29 20:28:00,33.1,27.0,30.17,SSW,193,0.0,0.0,78,0.00,,,0.00,0,WeatherCatV1.23B16,2013-11-30 02:28:00,
2013-11-29 20:30:00,33.0,26.9,30.17,SSW,193,0.0,0.0,78,0.00,,,0.00,0,WeatherCatV1.23B16,2013-11-30 02:30:00,
2013-11-29 20:31:00,33.0,26.9,30.17,SSW,193,0.0,0.0,78,0.00,,,0.00,0,WeatherCatV1.23B16,2013-11-30 02:31:00,
2013-11-29 20:33:00,32.9,26.8,30.17,SSW,193,0.0,0.0,78,0.00,,,0.00,0,WeatherCatV1.23B16,2013-11-30 02:33:00,
2013-11-29 20:35:00,32.8,26.7,30.17,SSW,193,0.0,0.0,78,0.00,,,0.00,0,WeatherCatV1.23B16,2013-11-30 02:35:00,
2013-11-29 20:36:00,32.8,26.7,30.17,SSW,193,0.0,0.0,78,0.00,,,0.00,0,WeatherCatV1.23B16,2013-11-30 02:36:00,
2013-11-29 20:37:00,32.8,26.7,30.17,SSW,193,0.0,0.0,78,0.00,,,0.00,0,WeatherCatV1.23B16,2013-11-30 02:37:00,
2013-11-29 20:39:00,32.8,27.0,30.17,SSW,192,0.0,0.0,79,0.00,,,0.00,0,WeatherCatV1.23B16,2013-11-30 02:39:00,
2013-11-29 20:40:00,33.0,27.2,30.17,SSW,193,0.0,0.0,79,0.00,,,0.00,0,WeatherCatV1.23B16,2013-11-30 02:40:00,
2013-11-29 20:41:00,33.0,27.2,30.17,SSW,192,0.0,0.0,79,0.00,,,0.00,0,WeatherCatV1.23B16,2013-11-30 02:41:00,
2013-11-29 20:42:00,33.0,27.2,30.17,SSW,193,0.0,0.0,79,0.00,,,0.00,0,WeatherCatV1.23B16,2013-11-30 02:42:00,
2013-11-29 20:44:00,32.9,27.1,30.17,SSW,192,0.0,0.0,79,0.00,,,0.00,0,WeatherCatV1.23B16,2013-11-30 02:44:00,
2013-11-29 20:46:00,32.8,27.0,30.17,SSW,193,0.0,0.0,79,0.00,,,0.00,0,WeatherCatV1.23B16,2013-11-30 02:46:00,
2013-11-29 20:47:00,32.6,26.5,30.17,SSW,193,0.0,0.0,78,0.00,,,0.00,0,WeatherCatV1.23B16,2013-11-30 02:47:00,
2013-11-29 20:48:00,32.6,26.5,30.17,SSW,193,0.0,0.0,78,0.00,,,0.00,0,WeatherCatV1.23B16,2013-11-30 02:48:00,
2013-11-29 20:49:00,32.5,26.4,30.17,SSW,193,0.0,0.0,78,0.00,,,0.00,0,WeatherCatV1.23B16,2013-11-30 02:49:00,
2013-11-29 20:51:00,32.3,26.2,30.17,SSW,193,0.0,0.0,78,0.00,,,0.00,0,WeatherCatV1.23B16,2013-11-30 02:51:00,
2013-11-29 20:52:00,32.2,26.1,30.17,SSW,193,0.0,0.0,78,0.00,,,0.00,0,WeatherCatV1.23B16,2013-11-30 02:52:00,
2013-11-29 20:53:00,31.9,25.8,30.17,SSW,193,0.0,0.0,78,0.00,,,0.00,0,WeatherCatV1.23B16,2013-11-30 02:53:00,
2013-11-29 20:54:00,31.8,25.7,30.17,SSW,192,0.0,0.0,78,0.00,,,0.00,0,WeatherCatV1.23B16,2013-11-30 02:54:00,
2013-11-29 20:56:00,31.6,25.5,30.17,SSW,193,0.0,0.0,78,0.00,,,0.00,0,WeatherCatV1.23B16,2013-11-30 02:56:00,
2013-11-29 20:57:00,31.5,25.8,30.17,SSW,193,0.0,0.0,79,0.00,,,0.00,0,WeatherCatV1.23B16,2013-11-30 02:57:00,
2013-11-29 20:58:00,31.5,25.8,30.17,SSW,192,0.0,0.0,79,0.00,,,0.00,0,WeatherCatV1.23B16,2013-11-30 02:58:00,
2013-11-29 20:59:00,31.4,25.6,30.17,SSW,192,0.0,0.0,79,0.00,,,0.00,0,WeatherCatV1.23B16,2013-11-30 02:59:00,
2013-11-29 21:01:00,31.2,25.5,30.17,SSW,193,0.0,0.0,79,0.00,,,0.00,0,WeatherCatV1.23B16,2013-11-30 03:01:00,
2013-11-29 21:02:00,31.1,25.4,30.17,SSW,193,0.0,0.0,79,0.00,,,0.00,0,WeatherCatV1.23B16,2013-11-30 03:02:00,
2013-11-29 21:03:00,31.0,25.3,30.17,SSW,193,0.0,0.0,79,0.00,,,0.00,0,WeatherCatV1.23B16,2013-11-30 03:03:00,
2013-11-29 21:04:00,31.0,25.6,30.17,SSW,193,0.0,0.0,80,0.00,,,0.00,0,WeatherCatV1.23B16,2013-11-30 03:04:00,
2013-11-29 21:06:00,30.8,25.4,30.17,SSW,192,0.0,0.0,80,0.00,,,0.00,0,WeatherCatV1.23B16,2013-11-30 03:06:00,
2013-11-29 21:07:00,30.7,25.3,30.17,SSW,193,0.0,0.0,80,0.00,,,0.00,0,WeatherCatV1.23B16,2013-11-30 03:07:00,
2013-11-29 21:09:00,30.8,25.7,30.17,SSW,192,0.0,0.0,81,0.00,,,0.00,0,WeatherCatV1.23B16,2013-11-30 03:09:00,
2013-11-29 21:10:00,30.7,25.6,30.17,SSW,193,0.0,0.0,81,0.00,,,0.00,0,WeatherCatV1.23B16,2013-11-30 03:10:00,
2013-11-29 21:12:00,30.5,25.4,30.17,SSW,192,0.0,0.0,81,0.00,,,0.00,0,WeatherCatV1.23B16,2013-11-30 03:12:00,
2013-11-29 21:13:00,30.5,25.4,30.17,SSW,192,0.0,0.0,81,0.00,,,0.00,0,WeatherCatV1.23B16,2013-11-30 03:13:00,
2013-11-29 21:14:00,30.4,25.3,30.17,SSW,193,0.0,0.0,81,0.00,,,0.00,0,WeatherCatV1.23B16,2013-11-30 03:14:00,
2013-11-29 21:15:00,30.4,25.3,30.17,SSW,192,0.0,0.0,81,0.00,,,0.00,0,WeatherCatV1.23B16,2013-11-30 03:15:00,
2013-11-29 21:17:00,30.3,25.2,30.17,SSW,193,0.0,0.0,81,0.00,,,0.00,0,WeatherCatV1.23B16,2013-11-30 03:17:00,
2013-11-29 21:18:00,30.3,25.2,30.17,SSW,192,0.0,0.0,81,0.00,,,0.00,0,WeatherCatV1.23B16,2013-11-30 03:18:00,
2013-11-29 21:19:00,30.4,25.6,30.17,SSW,193,0.0,0.0,82,0.00,,,0.00,0,WeatherCatV1.23B16,2013-11-30 03:19:00,
2013-11-29 21:20:00,30.4,25.6,30.17,SSW,193,0.0,0.0,82,0.00,,,0.00,0,WeatherCatV1.23B16,2013-11-30 03:20:00,
2013-11-29 21:22:00,30.5,25.7,30.17,SSW,193,0.0,0.0,82,0.00,,,0.00,0,WeatherCatV1.23B16,2013-11-30 03:22:00,
2013-11-29 21:23:00,30.5,25.7,30.17,SSW,193,0.0,0.0,82,0.00,,,0.00,0,WeatherCatV1.23B16,2013-11-30 03:23:00,
2013-11-29 21:24:00,30.5,25.7,30.17,SSW,192,0.0,0.0,82,0.00,,,0.00,0,WeatherCatV1.23B16,2013-11-30 03:24:00,
2013-11-29 21:25:00,30.6,25.8,30.17,SSW,193,0.0,0.0,82,0.00,,,0.00,0,WeatherCatV1.23B16,2013-11-30 03:25:00,
2013-11-29 21:27:00,30.8,26.0,30.17,SSW,193,0.0,0.0,82,0.00,,,0.00,0,WeatherCatV1.23B16,2013-11-30 03:27:00,
2013-11-29 21:28:00,30.9,26.1,30.17,SSW,193,0.0,0.0,82,0.00,,,0.00,0,WeatherCatV1.23B16,2013-11-30 03:28:00,
2013-11-29 21:30:00,31.0,26.2,30.17,SSW,193,0.0,0.0,82,0.00,,,0.00,0,WeatherCatV1.23B16,2013-11-30 03:30:00,
2013-11-29 21:32:00,31.2,26.4,30.17,SSW,192,0.0,0.0,82,0.00,,,0.00,0,WeatherCatV1.23B16,2013-11-30 03:32:00,
2013-11-29 21:33:00,31.2,26.4,30.17,SSW,192,0.0,0.0,82,0.00,,,0.00,0,WeatherCatV1.23B16,2013-11-30 03:33:00,
2013-11-29 21:35:00,31.4,26.5,30.17,SSW,192,0.0,0.0,82,0.00,,,0.00,0,WeatherCatV1.23B16,2013-11-30 03:35:00,
2013-11-29 21:36:00,31.4,26.5,30.17,SSW,193,0.0,0.0,82,0.00,,,0.00,0,WeatherCatV1.23B16,2013-11-30 03:36:00,
2013-11-29 21:37:00,31.5,26.6,30.17,SSW,192,0.0,0.0,82,0.00,,,0.00,0,WeatherCatV1.23B16,2013-11-30 03:37:00,
2013-11-29 21:38:00,31.5,26.6,30.17,SSW,192,0.0,0.0,82,0.00,,,0.00,0,WeatherCatV1.23B16,2013-11-30 03:38:00,
2013-11-29 21:40:00,31.6,26.8,30.17,SSW,192,0.0,0.0,82,0.00,,,0.00,0,WeatherCatV1.23B16,2013-11-30 03:40:00,
2013-11-29 21:41:00,31.6,26.8,30.17,SSW,193,0.0,0.0,82,0.00,,,0.00,0,WeatherCatV1.23B16,2013-11-30 03:41:00,
2013-11-29 21:42:00,31.9,27.0,30.17,SSW,193,0.0,0.0,82,0.00,,,0.00,0,WeatherCatV1.23B16,2013-11-30 03:42:00,
2013-11-29 21:44:00,32.2,27.6,30.17,SSW,192,0.0,2.0,83,0.00,,,0.00,0,WeatherCatV1.23B16,2013-11-30 03:44:00,
2013-11-29 21:46:00,32.5,27.9,30.17,SSW,192,1.0,2.0,83,0.00,,,0.00,0,WeatherCatV1.23B16,2013-11-30 03:46:00,
2013-11-29 21:47:00,32.5,27.9,30.17,SSW,193,3.0,3.0,83,0.00,,,0.00,0,WeatherCatV1.23B16,2013-11-30 03:47:00,
2013-11-29 21:48:00,32.5,27.9,30.17,SSW,192,2.0,3.0,83,0.00,,,0.00,0,WeatherCatV1.23B16,2013-11-30 03:48:00,
2013-11-29 21:49:00,32.6,27.7,30.17,SSW,193,5.0,5.0,82,0.00,,,0.00,0,WeatherCatV1.23B16,2013-11-30 03:49:00,
2013-11-29 21:51:00,32.8,27.9,30.17,SSW,193,3.0,3.0,82,0.00,,,0.00,0,WeatherCatV1.23B16,2013-11-30 03:51:00,
2013-11-29 21:52:00,33.0,27.8,30.17,SSW,193,3.0,4.0,81,0.00,,,0.00,0,WeatherCatV1.23B16,2013-11-30 03:52:00,
2013-11-29 21:53:00,33.2,28.0,30.17,SSW,192,3.0,5.0,81,0.00,,,0.00,0,WeatherCatV1.23B16,2013-11-30 03:53:00,
2013-11-29 21:54:00,33.4,28.2,30.17,SSW,192,3.0,5.0,81,0.00,,,0.00,0,WeatherCatV1.23B16,2013-11-30 03:54:00,
2013-11-29 21:56:00,33.9,28.4,30.17,SSW,193,3.0,5.0,80,0.00,,,0.00,0,WeatherCatV1.23B16,2013-11-30 03:56:00,
2013-11-29 21:57:00,34.0,28.5,30.17,SSW,193,7.0,7.0,80,0.00,,,0.00,0,WeatherCatV1.23B16,2013-11-30 03:57:00,
2013-11-29 21:58:00,34.4,28.6,30.17,SSW,193,2.0,7.0,79,0.00,,,0.00,0,WeatherCatV1.23B16,2013-11-30 03:58:00,
2013-11-29 21:59:00,34.4,28.6,30.17,SSW,193,4.0,6.0,79,0.00,,,0.00,0,WeatherCatV1.23B16,2013-11-30 03:59:00,
2013-11-29 22:01:00,34.8,28.6,30.16,SSW,193,4.0,4.0,78,0.00,,,0.00,0,WeatherCatV1.23B16,2013-11-30 04:01:00,
2013-11-29 22:02:00,34.9,28.8,30.17,SSW,192,3.0,4.0,78,0.00,,,0.00,0,WeatherCatV1.23B16,2013-11-30 04:02:00,
2013-11-29 22:03:00,35.0,28.5,30.17,SSW,193,1.0,4.0,77,0.00,,,0.00,0,WeatherCatV1.23B16,2013-11-30 04:03:00,
2013-11-29 22:04:00,35.0,28.5,30.17,SSW,192,3.0,4.0,77,0.00,,,0.00,0,WeatherCatV1.23B16,2013-11-30 04:04:00,
2013-11-29 22:06:00,35.0,28.2,30.17,SSW,193,1.0,3.0,76,0.00,,,0.00,0,WeatherCatV1.23B16,2013-11-30 04:06:00,
2013-11-29 22:07:00,35.0,28.2,30.17,SSW,193,2.0,4.0,76,0.00,,,0.00,0,WeatherCatV1.23B16,2013-11-30 04:07:00,
2013-11-29 22:09:00,35.1,28.3,30.17,SSW,193,2.0,4.0,76,0.00,,,0.00,0,WeatherCatV1.23B16,2013-11-30 04:09:00,
2013-11-29 22:11:00,35.2,28.4,30.17,SSW,193,0.0,3.0,76,0.00,,,0.00,0,WeatherCatV1.23B16,2013-11-30 04:11:00,
2013-11-29 22:12:00,35.2,28.4,30.17,SSW,193,2.0,3.0,76,0.00,,,0.00,0,WeatherCatV1.23B16,2013-11-30 04:12:00,
2013-11-29 22:14:00,35.2,28.4,30.17,SSW,192,2.0,5.0,76,0.00,,,0.00,0,WeatherCatV1.23B16,2013-11-30 04:14:00,
2013-11-29 22:17:00,35.2,28.4,30.17,SSW,193,4.0,5.0,76,0.00,,,0.00,0,WeatherCatV1.23B16,2013-11-30 04:17:00,
2013-11-29 22:19:00,35.2,28.1,30.17,SSW,193,1.0,4.0,75,0.00,,,0.00,0,WeatherCatV1.23B16,2013-11-30 04:19:00,
2013-11-29 22:20:00,35.2,28.1,30.17,SSW,193,2.0,4.0,75,0.00,,,0.00,0,WeatherCatV1.23B16,2013-11-30 04:20:00,
2013-11-29 22:22:00,35.1,28.0,30.17,SSW,193,3.0,4.0,75,0.00,,,0.00,0,WeatherCatV1.23B16,2013-11-30 04:22:00,
2013-11-29 22:24:00,35.0,28.2,30.17,SSW,193,1.0,4.0,76,0.00,,,0.00,0,WeatherCatV1.23B16,2013-11-30 04:24:00,
2013-11-29 22:25:00,35.0,28.2,30.17,SSW,192,2.0,4.0,76,0.00,,,0.00,0,WeatherCatV1.23B16,2013-11-30 04:25:00,
2013-11-29 22:27:00,35.0,28.2,30.17,SSW,192,0.0,3.0,76,0.00,,,0.00,0,WeatherCatV1.23B16,2013-11-30 04:27:00,
2013-11-29 22:29:00,34.7,27.6,30.17,SSW,193,0.0,2.0,75,0.00,,,0.00,0,WeatherCatV1.23B16,2013-11-30 04:29:00,
2013-11-29 22:30:00,34.8,27.7,30.17,SSW,192,0.0,2.0,75,0.00,,,0.00,0,WeatherCatV1.23B16,2013-11-30 04:30:00,
2013-11-29 22:32:00,34.5,27.7,30.17,SSW,193,1.0,1.0,76,0.00,,,0.00,0,WeatherCatV1.23B16,2013-11-30 04:32:00,
2013-11-29 22:35:00,34.5,27.7,30.17,SSW,193,1.0,3.0,76,0.00,,,0.00,0,WeatherCatV1.23B16,2013-11-30 04:35:00,
2013-11-29 22:36:00,34.5,27.7,30.17,SSW,193,1.0,3.0,76,0.00,,,0.00,0,WeatherCatV1.23B16,2013-11-30 04:36:00,
2013-11-29 22:37:00,34.5,27.7,30.17,SSW,193,1.0,3.0,76,0.00,,,0.00,0,WeatherCatV1.23B16,2013-11-30 04:37:00,
2013-11-29 22:40:00,34.5,27.7,30.17,SSW,193,3.0,4.0,76,0.00,,,0.00,0,WeatherCatV1.23B16,2013-11-30 04:40:00,
2013-11-29 22:41:00,34.6,27.8,30.17,SSW,193,2.0,4.0,76,0.00,,,0.00,0,WeatherCatV1.23B16,2013-11-30 04:41:00,
2013-11-29 22:42:00,34.7,28.2,30.17,SSW,192,2.0,3.0,77,0.00,,,0.00,0,WeatherCatV1.23B16,2013-11-30 04:42:00,
2013-11-29 22:43:00,34.7,28.2,30.17,SSW,192,5.0,5.0,77,0.00,,,0.00,0,WeatherCatV1.23B16,2013-11-30 04:43:00,
2013-11-29 22:45:00,34.8,28.0,30.17,SSW,193,2.0,3.0,76,0.00,,,0.00,0,WeatherCatV1.23B16,2013-11-30 04:45:00,
2013-11-29 22:46:00,34.9,28.1,30.17,SSW,192,2.0,3.0,76,0.00,,,0.00,0,WeatherCatV1.23B16,2013-11-30 04:46:00,
2013-11-29 22:47:00,34.9,28.1,30.17,SSW,192,3.0,4.0,76,0.00,,,0.00,0,WeatherCatV1.23B16,2013-11-30 04:47:00,
2013-11-29 22:48:00,35.0,28.2,30.17,SSW,193,2.0,4.0,76,0.00,,,0.00,0,WeatherCatV1.23B16,2013-11-30 04:48:00,
2013-11-29 22:50:00,35.0,28.2,30.16,SSW,193,5.0,5.0,76,0.00,,,0.00,0,WeatherCatV1.23B16,2013-11-30 04:50:00,
2013-11-29 22:51:00,35.1,28.3,30.16,SSW,193,3.0,5.0,76,0.00,,,0.00,0,WeatherCatV1.23B16,2013-11-30 04:51:00,
2013-11-29 22:52:00,35.1,28.3,30.16,SSW,193,2.0,5.0,76,0.00,,,0.00,0,WeatherCatV1.23B16,2013-11-30 04:52:00,
2013-11-29 22:54:00,35.1,28.3,30.16,SSW,192,3.0,5.0,76,0.00,,,0.00,0,WeatherCatV1.23B16,2013-11-30 04:54:00,
2013-11-29 22:55:00,35.2,28.4,30.16,SSW,192,3.0,5.0,76,0.00,,,0.00,0,WeatherCatV1.23B16,2013-11-30 04:55:00,
2013-11-29 22:56:00,35.2,28.4,30.16,SSW,193,2.0,5.0,76,0.00,,,0.00,0,WeatherCatV1.23B16,2013-11-30 04:56:00,
2013-11-29 22:57:00,35.1,28.3,30.16,SSW,192,3.0,3.0,76,0.00,,,0.00,0,WeatherCatV1.23B16,2013-11-30 04:57:00,
2013-11-29 22:58:00,35.1,28.3,30.16,SSW,192,3.0,3.0,76,0.00,,,0.00,0,WeatherCatV1.23B16,2013-11-30 04:58:00,
2013-11-29 22:59:00,35.1,28.3,30.16,SSW,193,3.0,4.0,76,0.00,,,0.00,0,WeatherCatV1.23B16,2013-11-30 04:59:00,
2013-11-29 23:00:00,35.0,28.2,30.16,SSW,193,4.0,4.0,76,0.00,,,0.00,0,WeatherCatV1.23B16,2013-11-30 05:00:00,
2013-11-29 23:01:00,35.0,28.2,30.16,SSW,192,1.0,4.0,76,0.00,,,0.00,0,WeatherCatV1.23B16,2013-11-30 05:01:00,
2013-11-29 23:06:00,34.9,28.1,30.16,SSW,193,2.0,4.0,76,0.00,,,0.00,0,WeatherCatV1.23B16,2013-11-30 05:06:00,
2013-11-29 23:07:00,34.8,28.0,30.16,SSW,193,3.0,4.0,76,0.00,,,0.00,0,WeatherCatV1.23B16,2013-11-30 05:07:00,
2013-11-29 23:11:00,34.7,28.2,30.16,SSW,194,2.0,6.0,77,0.00,,,0.00,0,WeatherCatV1.23B16,2013-11-30 05:11:00,
2013-11-29 23:12:00,34.8,28.3,30.16,SSW,194,4.0,6.0,77,0.00,,,0.00,0,WeatherCatV1.23B16,2013-11-30 05:12:00,
2013-11-29 23:16:00,34.7,27.9,30.16,SSW,194,2.0,3.0,76,0.00,,,0.00,0,WeatherCatV1.23B16,2013-11-30 05:16:00,
2013-11-29 23:17:00,34.7,27.9,30.16,SSW,194,3.0,3.0,76,0.00,,,0.00,0,WeatherCatV1.23B16,2013-11-30 05:17:00,
2013-11-29 23:21:00,34.4,28.0,30.16,SSW,194,3.0,3.0,77,0.00,,,0.00,0,WeatherCatV1.23B16,2013-11-30 05:21:00,
2013-11-29 23:22:00,34.4,28.0,30.16,SSW,194,1.0,3.0,77,0.00,,,0.00,0,WeatherCatV1.23B16,2013-11-30 05:22:00,
2013-11-29 23:23:00,34.4,27.6,30.15,SSW,194,2.0,3.0,76,0.00,,,0.00,0,WeatherCatV1.23B16,2013-11-30 05:23:00,
2013-11-29 23:26:00,34.4,28.0,30.15,SSW,194,2.0,3.0,77,0.00,,,0.00,0,WeatherCatV1.23B16,2013-11-30 05:26:00,
2013-11-29 23:27:00,34.4,28.0,30.15,SSW,194,1.0,3.0,77,0.00,,,0.00,0,WeatherCatV1.23B16,2013-11-30 05:27:00,
2013-11-29 23:28:00,34.4,28.0,30.15,SSW,194,0.0,2.0,77,0.00,,,0.00,0,WeatherCatV1.23B16,2013-11-30 05:28:00,
2013-11-29 23:29:00,34.3,27.9,30.15,SSW,194,1.0,2.0,77,0.00,,,0.00,0,WeatherCatV1.23B16,2013-11-30 05:29:00,
2013-11-29 23:31:00,34.1,27.7,30.15,SSW,194,0.0,2.0,77,0.00,,,0.00,0,WeatherCatV1.23B16,2013-11-30 05:31:00,
2013-11-29 23:32:00,34.1,27.7,30.15,SSW,194,0.0,2.0,77,0.00,,,0.00,0,WeatherCatV1.23B16,2013-11-30 05:32:00,
2013-11-29 23:33:00,34.0,27.6,30.15,SSW,194,1.0,1.0,77,0.00,,,0.00,0,WeatherCatV1.23B16,2013-11-30 05:33:00,
2013-11-29 23:34:00,34.0,27.6,30.15,SSW,194,1.0,3.0,77,0.00,,,0.00,0,WeatherCatV1.23B16,2013-11-30 05:34:00,
2013-11-29 23:36:00,33.9,27.8,30.15,SSW,194,3.0,3.0,78,0.00,,,0.00,0,WeatherCatV1.23B16,2013-11-30 05:36:00,
2013-11-29 23:37:00,33.9,27.8,30.15,SSW,194,1.0,3.0,78,0.00,,,0.00,0,WeatherCatV1.23B16,2013-11-30 05:37:00,
2013-11-29 23:38:00,33.9,27.8,30.15,SSW,194,2.0,3.0,78,0.00,,,0.00,0,WeatherCatV1.23B16,2013-11-30 05:38:00,
2013-11-29 23:39:00,33.8,27.7,30.15,SSW,194,0.0,3.0,78,0.00,,,0.00,0,WeatherCatV1.23B16,2013-11-30 05:39:00,
2013-11-29 23:42:00,33.5,27.1,30.15,SSW,194,0.0,2.0,77,0.00,,,0.00,0,WeatherCatV1.23B16,2013-11-30 05:42:00,
2013-11-29 23:43:00,33.4,27.3,30.15,SSW,194,0.0,0.0,78,0.00,,,0.00,0,WeatherCatV1.23B16,2013-11-30 05:43:00,
2013-11-29 23:45:00,33.1,27.0,30.15,SSW,194,0.0,0.0,78,0.00,,,0.00,0,WeatherCatV1.23B16,2013-11-30 05:45:00,
2013-11-29 23:47:00,32.9,26.8,30.15,SSW,194,1.0,1.0,78,0.00,,,0.00,0,WeatherCatV1.23B16,2013-11-30 05:47:00,
2013-11-29 23:48:00,32.8,26.7,30.15,SSW,194,0.0,2.0,78,0.00,,,0.00,0,WeatherCatV1.23B16,2013-11-30 05:48:00,
2013-11-29 23:50:00,32.5,26.4,30.15,SSW,194,0.0,1.0,78,0.00,,,0.00,0,WeatherCatV1.23B16,2013-11-30 05:50:00,
2013-11-29 23:52:00,32.5,26.7,30.15,SSW,194,2.0,3.0,79,0.00,,,0.00,0,WeatherCatV1.23B16,2013-11-30 05:52:00,
2013-11-29 23:53:00,32.5,26.7,30.15,SSW,194,1.0,3.0,79,0.00,,,0.00,0,WeatherCatV1.23B16,2013-11-30 05:53:00,
2013-11-29 23:54:00,32.5,26.7,30.15,SSW,194,1.0,2.0,79,0.00,,,0.00,0,WeatherCatV1.23B16,2013-11-30 05:54:00,
2013-11-29 23:55:00,32.4,26.6,30.15,SSW,194,0.0,1.0,79,0.00,,,0.00,0,WeatherCatV1.23B16,2013-11-30 05:55:00,
2013-11-29 23:57:00,32.3,26.5,30.15,SSW,194,2.0,2.0,79,0.00,,,0.00,0,WeatherCatV1.23B16,2013-11-30 05:57:00,
2013-11-29 23:58:00,32.3,26.5,30.15,SSW,194,0.0,4.0,79,0.00,,,0.00,0,WeatherCatV1.23B16,2013-11-30 05:58:00,
2013-11-29 23:59:00,32.1,26.6,30.15,SSW,194,0.0,4.0,80,0.00,,,0.00,0,WeatherCatV1.23B16,2013-11-30 05:59:00,